| time (UTC) | temp F | wind direction | speed knots | gust knots | rain 1hr in | rain 24hr in | rain mn in | humidity % | barometer mb |
| 20260507052352 | 50 | 339 | 3.5 | 4.3 | 0.00 | 0.00 | 0.00 | 34 | 814.6 |
| 20260507052243 | 50 | 337 | 4.3 | 5.2 | 0.00 | 0.00 | 0.00 | 34 | 814.6 |
| 20260507052132 | 49 | 339 | 3.5 | 5.2 | 0.00 | 0.00 | 0.00 | 35 | 814.6 |
| 20260507052022 | 49 | 341 | 4.3 | 5.2 | 0.00 | 0.00 | 0.00 | 35 | 814.6 |
| 20260507051916 | 49 | 343 | 4.3 | 5.2 | 0.00 | 0.00 | 0.00 | 35 | 814.6 |
| 20260507051802 | 49 | 338 | 5.2 | 7.0 | 0.00 | 0.00 | 0.00 | 35 | 814.6 |
| 20260507051651 | 49 | 2 | 4.3 | 6.1 | 0.00 | 0.00 | 0.00 | 36 | 814.6 |
| 20260507051542 | 49 | 349 | 4.3 | 5.2 | 0.00 | 0.00 | 0.00 | 36 | 814.6 |
| 20260507051432 | 49 | 345 | 4.3 | 5.2 | 0.00 | 0.00 | 0.00 | 36 | 814.6 |
| 20260507051322 | 49 | 334 | 5.2 | 5.2 | 0.00 | 0.00 | 0.00 | 36 | 814.6 |
| 20260507051211 | 49 | 335 | 7.0 | 7.8 | 0.00 | 0.00 | 0.00 | 35 | 814.6 |
| 20260507051102 | 49 | 322 | 5.2 | 7.0 | 0.00 | 0.00 | 0.00 | 35 | 814.6 |
| 20260507050842 | 49 | 321 | 7.0 | 7.8 | 0.00 | 0.00 | 0.00 | 35 | 814.6 |
| 20260507050733 | 49 | 312 | 7.0 | 7.8 | 0.00 | 0.00 | 0.00 | 36 | 814.6 |
| 20260507050621 | 49 | 307 | 7.8 | 8.7 | 0.00 | 0.00 | 0.00 | 36 | 814.6 |
| 20260507050512 | 49 | 314 | 7.8 | 8.7 | 0.00 | 0.00 | 0.00 | 37 | 814.6 |
| 20260507050403 | 49 | 313 | 7.0 | 7.8 | 0.00 | 0.00 | 0.00 | 36 | 814.6 |
| 20260507050143 | 49 | 321 | 7.8 | 10.4 | 0.00 | 0.00 | 0.00 | 36 | 814.6 |
| 20260507050033 | 49 | 315 | 8.7 | 11.3 | 0.00 | 0.00 | 0.00 | 36 | 814.6 |
| 20260507045811 | 49 | 319 | 11.3 | 13.0 | 0.00 | 0.00 | 0.00 | 36 | 814.5 |
| 20260507045702 | 49 | 317 | 10.4 | 12.2 | 0.00 | 0.00 | 0.00 | 36 | 814.5 |
| 20260507045551 | 49 | 320 | 9.6 | 12.2 | 0.00 | 0.00 | 0.00 | 36 | 814.5 |
| 20260507045441 | 49 | 318 | 7.8 | 12.2 | 0.00 | 0.00 | 0.00 | 36 | 814.6 |
| 20260507045334 | 49 | 330 | 7.0 | 9.6 | 0.00 | 0.00 | 0.00 | 36 | 814.6 |
| 20260507045223 | 49 | 324 | 8.7 | 10.4 | 0.00 | 0.00 | 0.00 | 36 | 814.5 |
| 20260507045112 | 49 | 327 | 7.8 | 12.2 | 0.00 | 0.00 | 0.00 | 36 | 814.6 |
| 20260507045003 | 49 | 320 | 7.8 | 10.4 | 0.00 | 0.00 | 0.00 | 36 | 814.3 |
| 20260507044744 | 49 | 317 | 8.7 | 9.6 | 0.00 | 0.00 | 0.00 | 36 | 814.6 |
| 20260507044521 | 49 | 322 | 9.6 | 13.0 | 0.00 | 0.00 | 0.00 | 35 | 814.6 |
| 20260507044301 | 49 | 316 | 9.6 | 12.2 | 0.00 | 0.00 | 0.00 | 35 | 814.3 |
| 20260507043932 | 49 | 325 | 7.0 | 10.4 | 0.00 | 0.00 | 0.00 | 35 | 814.5 |
| 20260507043822 | 49 | 324 | 8.7 | 10.4 | 0.00 | 0.00 | 0.00 | 34 | 814.3 |
| 20260507043711 | 49 | 319 | 10.4 | 13.9 | 0.00 | 0.00 | 0.00 | 34 | 814.3 |
| 20260507043603 | 49 | 324 | 9.6 | 12.2 | 0.00 | 0.00 | 0.00 | 34 | 814.3 |
| 20260507043451 | 49 | 325 | 10.4 | 13.0 | 0.00 | 0.00 | 0.00 | 35 | 814.3 |
| 20260507043341 | 49 | 316 | 10.4 | 15.6 | 0.00 | 0.00 | 0.00 | 35 | 814.2 |
| 20260507043231 | 49 | 322 | 9.6 | 13.0 | 0.00 | 0.00 | 0.00 | 35 | 814.3 |
| 20260507043121 | 48 | 329 | 10.4 | 12.2 | 0.00 | 0.00 | 0.00 | 35 | 814.3 |
| 20260507043011 | 48 | 324 | 10.4 | 13.0 | 0.00 | 0.00 | 0.00 | 35 | 814.3 |
| 20260507042901 | 48 | 326 | 8.7 | 13.0 | 0.00 | 0.00 | 0.00 | 36 | 814.3 |
| 20260507042641 | 48 | 318 | 9.6 | 13.0 | 0.00 | 0.00 | 0.00 | 36 | 814.2 |
| 20260507042531 | 48 | 330 | 9.6 | 13.9 | 0.00 | 0.00 | 0.00 | 36 | 814.3 |
| 20260507042421 | 48 | 336 | 7.0 | 10.4 | 0.00 | 0.00 | 0.00 | 36 | 814.3 |
| 20260507042311 | 48 | 330 | 7.8 | 11.3 | 0.00 | 0.00 | 0.00 | 36 | 814.2 |
| 20260507042201 | 48 | 325 | 8.7 | 11.3 | 0.00 | 0.00 | 0.00 | 36 | 814.2 |
| 20260507042051 | 48 | 318 | 9.6 | 13.0 | 0.00 | 0.00 | 0.00 | 36 | 814.2 |
| 20260507041941 | 48 | 325 | 8.7 | 11.3 | 0.00 | 0.00 | 0.00 | 36 | 814.3 |
| 20260507041833 | 48 | 330 | 8.7 | 11.3 | 0.00 | 0.00 | 0.00 | 36 | 814.3 |
| 20260507041721 | 48 | 333 | 8.7 | 11.3 | 0.00 | 0.00 | 0.00 | 36 | 814.3 |
| 20260507041501 | 48 | 342 | 8.7 | 10.4 | 0.00 | 0.00 | 0.00 | 36 | 814.3 |
| 20260507041351 | 48 | 342 | 10.4 | 11.3 | 0.00 | 0.00 | 0.00 | 35 | 814.2 |
| 20260507041241 | 48 | 342 | 9.6 | 12.2 | 0.00 | 0.00 | 0.00 | 35 | 814.2 |
| 20260507041132 | 48 | 349 | 10.4 | 11.3 | 0.00 | 0.00 | 0.00 | 36 | 814.2 |
| 20260507041021 | 48 | 345 | 8.7 | 10.4 | 0.00 | 0.00 | 0.00 | 36 | 814.3 |
| 20260507040912 | 48 | 348 | 9.6 | 11.3 | 0.00 | 0.00 | 0.00 | 37 | 814.2 |
| 20260507040651 | 48 | 356 | 10.4 | 11.3 | 0.00 | 0.00 | 0.00 | 38 | 814.2 |
| 20260507040541 | 48 | 4 | 12.2 | 13.0 | 0.00 | 0.00 | 0.00 | 36 | 814.2 |
| 20260507040321 | 48 | 4 | 12.2 | 13.9 | 0.00 | 0.00 | 0.00 | 37 | 814.2 |
| 20260507035951 | 48 | 6 | 12.2 | 13.0 | 0.00 | 0.00 | 0.00 | 37 | 814.2 |
| 20260507035841 | 48 | 6 | 12.2 | 13.9 | 0.00 | 0.00 | 0.00 | 39 | 814.2 |
| 20260507035731 | 48 | 6 | 13.0 | 14.8 | 0.00 | 0.00 | 0.00 | 38 | 814.2 |
| 20260507035621 | 48 | 8 | 13.0 | 14.8 | 0.00 | 0.00 | 0.00 | 38 | 814.2 |
| 20260507035511 | 48 | 7 | 13.0 | 13.9 | 0.00 | 0.00 | 0.00 | 40 | 814.1 |
| 20260507035251 | 48 | 13 | 13.9 | 15.6 | 0.00 | 0.00 | 0.00 | 43 | 813.9 |
| 20260507035141 | 48 | 14 | 13.0 | 13.9 | 0.00 | 0.00 | 0.00 | 42 | 813.9 |
| 20260507035031 | 48 | 15 | 11.3 | 13.0 | 0.00 | 0.00 | 0.00 | 45 | 814.1 |
| 20260507034921 | 48 | 14 | 13.0 | 15.6 | 0.00 | 0.00 | 0.00 | 39 | 813.9 |
| 20260507034811 | 48 | 14 | 13.9 | 15.6 | 0.00 | 0.00 | 0.00 | 40 | 813.9 |
| 20260507034701 | 48 | 13 | 13.9 | 16.5 | 0.00 | 0.00 | 0.00 | 36 | 813.9 |
| 20260507034441 | 48 | 12 | 14.8 | 16.5 | 0.00 | 0.00 | 0.00 | 35 | 813.8 |
| 20260507034331 | 48 | 15 | 14.8 | 16.5 | 0.00 | 0.00 | 0.00 | 39 | 813.8 |
| 20260507034221 | 48 | 19 | 13.0 | 16.5 | 0.00 | 0.00 | 0.00 | 42 | 813.8 |
| 20260507034001 | 48 | 20 | 12.2 | 15.6 | 0.00 | 0.00 | 0.00 | 43 | 813.8 |
| 20260507033851 | 48 | 14 | 14.8 | 16.5 | 0.00 | 0.00 | 0.00 | 37 | 813.8 |
| 20260507033631 | 48 | 12 | 14.8 | 17.4 | 0.00 | 0.00 | 0.00 | 37 | 813.8 |
| 20260507033411 | 48 | 14 | 14.8 | 17.4 | 0.00 | 0.00 | 0.00 | 37 | 813.8 |
| 20260507033301 | 48 | 14 | 15.6 | 16.5 | 0.00 | 0.00 | 0.00 | 39 | 813.8 |
| 20260507033151 | 48 | 15 | 15.6 | 18.2 | 0.00 | 0.00 | 0.00 | 44 | 813.8 |
| 20260507033041 | 48 | 17 | 14.8 | 17.4 | 0.00 | 0.00 | 0.00 | 44 | 813.8 |
| 20260507032931 | 48 | 16 | 13.9 | 17.4 | 0.00 | 0.00 | 0.00 | 47 | 813.8 |
| 20260507032821 | 48 | 22 | 13.0 | 16.5 | 0.00 | 0.00 | 0.00 | 51 | 813.8 |
| 20260507032711 | 48 | 23 | 13.0 | 16.5 | 0.00 | 0.00 | 0.00 | 52 | 813.8 |
| 20260507032601 | 48 | 19 | 13.9 | 17.4 | 0.00 | 0.00 | 0.00 | 53 | 813.8 |
| 20260507032341 | 48 | 21 | 14.8 | 17.4 | 0.00 | 0.00 | 0.00 | 51 | 813.8 |
| 20260507032231 | 48 | 18 | 13.9 | 17.4 | 0.00 | 0.00 | 0.00 | 50 | 813.8 |
| 20260507032121 | 48 | 18 | 16.5 | 18.2 | 0.00 | 0.00 | 0.00 | 45 | 813.8 |
| 20260507032011 | 48 | 17 | 14.8 | 17.4 | 0.00 | 0.00 | 0.00 | 45 | 813.8 |
| 20260507031901 | 48 | 17 | 15.6 | 18.2 | 0.00 | 0.00 | 0.00 | 45 | 813.8 |
| 20260507031641 | 48 | 13 | 16.5 | 18.2 | 0.00 | 0.00 | 0.00 | 40 | 813.8 |
| 20260507031531 | 48 | 11 | 16.5 | 18.2 | 0.00 | 0.00 | 0.00 | 41 | 813.8 |
| 20260507031421 | 48 | 13 | 16.5 | 18.2 | 0.00 | 0.00 | 0.00 | 42 | 813.8 |
| 20260507031311 | 48 | 11 | 16.5 | 18.2 | 0.00 | 0.00 | 0.00 | 40 | 813.8 |
| 20260507031051 | 48 | 11 | 17.4 | 18.2 | 0.00 | 0.00 | 0.00 | 37 | 813.8 |
| 20260507030941 | 48 | 13 | 16.5 | 18.2 | 0.00 | 0.00 | 0.00 | 37 | 813.8 |
| 20260507030831 | 49 | 9 | 17.4 | 19.1 | 0.00 | 0.00 | 0.00 | 36 | 813.7 |
| 20260507030721 | 49 | 8 | 16.5 | 17.4 | 0.00 | 0.00 | 0.00 | 35 | 813.7 |
| 20260507030611 | 49 | 8 | 15.6 | 17.4 | 0.00 | 0.00 | 0.00 | 33 | 813.8 |
| 20260507030501 | 49 | 8 | 15.6 | 17.4 | 0.00 | 0.00 | 0.00 | 33 | 813.7 |
| 20260507030351 | 48 | 6 | 16.5 | 17.4 | 0.00 | 0.00 | 0.00 | 34 | 813.7 |
| 20260507030241 | 48 | 5 | 14.8 | 16.5 | 0.00 | 0.00 | 0.00 | 36 | 813.8 |
| 20260507030021 | 48 | 2 | 14.8 | 17.4 | 0.00 | 0.00 | 0.00 | 38 | 813.8 |
| 20260507025911 | 48 | 3 | 13.9 | 15.6 | 0.00 | 0.00 | 0.00 | 46 | 813.8 |
| 20260507025801 | 48 | 5 | 13.0 | 15.6 | 0.00 | 0.00 | 0.00 | 47 | 813.8 |
| 20260507025651 | 48 | 12 | 13.0 | 14.8 | 0.00 | 0.00 | 0.00 | 52 | 813.8 |
| 20260507025541 | 48 | 11 | 13.0 | 14.8 | 0.00 | 0.00 | 0.00 | 54 | 813.8 |
| 20260507025431 | 48 | 11 | 13.9 | 15.6 | 0.00 | 0.00 | 0.00 | 47 | 813.7 |
| 20260507025321 | 48 | 11 | 13.9 | 15.6 | 0.00 | 0.00 | 0.00 | 50 | 813.7 |
| 20260507025101 | 48 | 18 | 13.0 | 14.8 | 0.00 | 0.00 | 0.00 | 52 | 813.8 |
| 20260507024951 | 48 | 20 | 10.4 | 13.0 | 0.00 | 0.00 | 0.00 | 55 | 813.8 |
| 20260507024841 | 48 | 19 | 9.6 | 13.0 | 0.00 | 0.00 | 0.00 | 53 | 813.8 |
| 20260507024731 | 48 | 22 | 8.7 | 13.0 | 0.00 | 0.00 | 0.00 | 56 | 813.7 |
| 20260507024621 | 48 | 21 | 7.8 | 12.2 | 0.00 | 0.00 | 0.00 | 59 | 813.7 |
| 20260507024512 | 48 | 30 | 10.4 | 12.2 | 0.00 | 0.00 | 0.00 | 60 | 813.7 |
| 20260507024401 | 48 | 31 | 10.4 | 12.2 | 0.00 | 0.00 | 0.00 | 60 | 813.8 |
| 20260507024251 | 48 | 30 | 10.4 | 12.2 | 0.00 | 0.00 | 0.00 | 59 | 813.8 |
| 20260507024141 | 48 | 31 | 10.4 | 12.2 | 0.00 | 0.00 | 0.00 | 59 | 813.8 |
| 20260507024031 | 48 | 31 | 10.4 | 12.2 | 0.00 | 0.00 | 0.00 | 59 | 813.8 |
| 20260507023921 | 48 | 32 | 11.3 | 12.2 | 0.00 | 0.00 | 0.00 | 60 | 813.7 |
| 20260507023701 | 48 | 34 | 11.3 | 12.2 | 0.00 | 0.00 | 0.00 | 60 | 813.8 |
| 20260507023441 | 48 | 34 | 11.3 | 11.3 | 0.00 | 0.00 | 0.00 | 60 | 813.8 |
| 20260507023331 | 48 | 34 | 10.4 | 11.3 | 0.00 | 0.00 | 0.00 | 61 | 813.8 |
| 20260507023221 | 48 | 33 | 10.4 | 11.3 | 0.00 | 0.00 | 0.00 | 61 | 813.8 |
| 20260507023111 | 47 | 34 | 10.4 | 11.3 | 0.00 | 0.00 | 0.00 | 61 | 813.8 |
| 20260507023001 | 47 | 35 | 10.4 | 10.4 | 0.00 | 0.00 | 0.00 | 61 | 813.8 |
| 20260507022851 | 47 | 34 | 10.4 | 11.3 | 0.00 | 0.00 | 0.00 | 61 | 813.8 |
| 20260507022741 | 48 | 36 | 10.4 | 11.3 | 0.00 | 0.00 | 0.00 | 61 | 813.8 |
| 20260507022631 | 48 | 39 | 10.4 | 10.4 | 0.00 | 0.00 | 0.00 | 61 | 813.8 |
| 20260507022521 | 48 | 38 | 10.4 | 10.4 | 0.00 | 0.00 | 0.00 | 61 | 813.8 |
| 20260507022411 | 48 | 38 | 10.4 | 11.3 | 0.00 | 0.00 | 0.00 | 60 | 813.8 |
| 20260507022301 | 48 | 38 | 10.4 | 11.3 | 0.00 | 0.00 | 0.00 | 60 | 813.8 |
| 20260507022041 | 48 | 38 | 10.4 | 11.3 | 0.00 | 0.00 | 0.00 | 59 | 813.8 |
| 20260507021821 | 49 | 36 | 13.0 | 13.0 | 0.00 | 0.00 | 0.00 | 55 | 813.7 |
| 20260507021711 | 49 | 35 | 13.0 | 13.0 | 0.00 | 0.00 | 0.00 | 55 | 813.7 |
| 20260507021601 | 49 | 35 | 13.0 | 13.0 | 0.00 | 0.00 | 0.00 | 55 | 813.8 |
| 20260507021341 | 49 | 33 | 12.2 | 13.0 | 0.00 | 0.00 | 0.00 | 55 | 813.8 |
| 20260507021121 | 49 | 33 | 12.2 | 13.0 | 0.00 | 0.00 | 0.00 | 55 | 813.8 |
| 20260507021011 | 49 | 33 | 12.2 | 13.0 | 0.00 | 0.00 | 0.00 | 56 | 813.8 |
| 20260507020751 | 49 | 33 | 12.2 | 13.0 | 0.00 | 0.00 | 0.00 | 55 | 813.8 |
| 20260507020641 | 49 | 32 | 12.2 | 13.0 | 0.00 | 0.00 | 0.00 | 55 | 813.8 |
| 20260507020531 | 49 | 33 | 11.3 | 13.0 | 0.00 | 0.00 | 0.00 | 55 | 813.8 |
| 20260507020421 | 49 | 32 | 11.3 | 12.2 | 0.00 | 0.00 | 0.00 | 55 | 813.8 |
| 20260507020311 | 49 | 33 | 11.3 | 12.2 | 0.00 | 0.00 | 0.00 | 55 | 813.8 |
| 20260507020201 | 49 | 32 | 11.3 | 11.3 | 0.00 | 0.00 | 0.00 | 55 | 813.8 |
| 20260507015941 | 49 | 31 | 11.3 | 12.2 | 0.00 | 0.00 | 0.00 | 55 | 813.8 |
| 20260507015721 | 49 | 31 | 10.4 | 12.2 | 0.00 | 0.00 | 0.00 | 55 | 813.8 |
| 20260507015611 | 49 | 31 | 10.4 | 11.3 | 0.00 | 0.00 | 0.00 | 54 | 813.8 |
| 20260507015501 | 49 | 31 | 10.4 | 11.3 | 0.00 | 0.00 | 0.00 | 54 | 813.8 |
| 20260507015351 | 49 | 31 | 10.4 | 11.3 | 0.00 | 0.00 | 0.00 | 54 | 813.8 |
| 20260507015241 | 49 | 30 | 9.6 | 11.3 | 0.00 | 0.00 | 0.00 | 53 | 813.8 |
| 20260507015131 | 49 | 29 | 8.7 | 12.2 | 0.00 | 0.00 | 0.00 | 53 | 813.8 |
| 20260507015021 | 49 | 26 | 7.8 | 12.2 | 0.00 | 0.00 | 0.00 | 53 | 813.8 |
| 20260507014911 | 49 | 27 | 8.7 | 12.2 | 0.00 | 0.00 | 0.00 | 53 | 813.8 |
| 20260507014801 | 49 | 29 | 9.6 | 12.2 | 0.00 | 0.00 | 0.00 | 54 | 813.8 |
| 20260507014651 | 49 | 32 | 10.4 | 11.3 | 0.00 | 0.00 | 0.00 | 53 | 813.8 |
| 20260507014541 | 49 | 32 | 10.4 | 10.4 | 0.00 | 0.00 | 0.00 | 53 | 813.8 |
| 20260507014431 | 49 | 30 | 9.6 | 10.4 | 0.00 | 0.00 | 0.00 | 53 | 813.8 |
| 20260507014321 | 49 | 25 | 7.8 | 11.3 | 0.00 | 0.00 | 0.00 | 53 | 813.8 |
| 20260507014211 | 49 | 23 | 7.8 | 11.3 | 0.00 | 0.00 | 0.00 | 53 | 813.8 |
| 20260507014101 | 49 | 25 | 8.7 | 12.2 | 0.00 | 0.00 | 0.00 | 53 | 813.8 |
| 20260507013951 | 49 | 30 | 10.4 | 11.3 | 0.00 | 0.00 | 0.00 | 53 | 813.8 |
| 20260507013731 | 49 | 32 | 10.4 | 11.3 | 0.00 | 0.00 | 0.00 | 53 | 813.8 |
| 20260507013621 | 49 | 30 | 9.6 | 11.3 | 0.00 | 0.00 | 0.00 | 53 | 813.8 |
| 20260507013511 | 49 | 29 | 8.7 | 11.3 | 0.00 | 0.00 | 0.00 | 52 | 813.8 |
| 20260507013401 | 49 | 29 | 7.8 | 10.4 | 0.00 | 0.00 | 0.00 | 52 | 813.8 |
| 20260507013251 | 49 | 25 | 7.8 | 10.4 | 0.00 | 0.00 | 0.00 | 52 | 813.8 |
| 20260507013031 | 49 | 23 | 7.8 | 10.4 | 0.00 | 0.00 | 0.00 | 52 | 813.8 |
| 20260507012811 | 49 | 23 | 7.8 | 11.3 | 0.00 | 0.00 | 0.00 | 52 | 813.8 |
| 20260507012551 | 49 | 23 | 7.0 | 10.4 | 0.00 | 0.00 | 0.00 | 52 | 813.8 |
| 20260507012441 | 49 | 24 | 7.0 | 10.4 | 0.00 | 0.00 | 0.00 | 52 | 813.8 |
| 20260507012331 | 49 | 24 | 7.0 | 10.4 | 0.00 | 0.00 | 0.00 | 51 | 813.8 |
| 20260507012221 | 49 | 25 | 7.8 | 10.4 | 0.00 | 0.00 | 0.00 | 51 | 813.8 |
| 20260507012111 | 49 | 23 | 7.8 | 10.4 | 0.00 | 0.00 | 0.00 | 51 | 813.8 |
| 20260507012001 | 49 | 21 | 7.8 | 10.4 | 0.00 | 0.00 | 0.00 | 51 | 813.8 |
| 20260507011851 | 49 | 21 | 9.6 | 12.2 | 0.00 | 0.00 | 0.00 | 50 | 813.8 |
| 20260507011741 | 50 | 20 | 9.6 | 11.3 | 0.00 | 0.00 | 0.00 | 50 | 813.8 |
| 20260507011631 | 50 | 20 | 7.8 | 11.3 | 0.00 | 0.00 | 0.00 | 50 | 813.8 |
| 20260507011521 | 50 | 22 | 9.6 | 11.3 | 0.00 | 0.00 | 0.00 | 50 | 813.8 |
| 20260507011301 | 50 | 20 | 9.6 | 11.3 | 0.00 | 0.00 | 0.00 | 50 | 813.8 |
| 20260507011042 | 50 | 18 | 10.4 | 10.4 | 0.00 | 0.00 | 0.00 | 50 | 813.8 |
| 20260507010931 | 50 | 18 | 9.6 | 10.4 | 0.00 | 0.00 | 0.00 | 50 | 813.8 |
| 20260507010821 | 50 | 18 | 10.4 | 10.4 | 0.00 | 0.00 | 0.00 | 50 | 813.8 |
| 20260507010711 | 50 | 17 | 9.6 | 10.4 | 0.00 | 0.00 | 0.00 | 50 | 813.8 |
| 20260507010601 | 50 | 16 | 9.6 | 10.4 | 0.00 | 0.00 | 0.00 | 49 | 813.8 |
| 20260507010451 | 50 | 17 | 9.6 | 10.4 | 0.00 | 0.00 | 0.00 | 49 | 813.8 |
| 20260507010341 | 50 | 17 | 9.6 | 10.4 | 0.00 | 0.00 | 0.00 | 49 | 813.8 |
| 20260507010231 | 50 | 16 | 9.6 | 10.4 | 0.00 | 0.00 | 0.00 | 48 | 813.8 |
| 20260507010011 | 50 | 14 | 8.7 | 9.6 | 0.00 | 0.00 | 0.00 | 48 | 813.8 |
| 20260507005901 | 50 | 14 | 8.7 | 8.7 | 0.00 | 0.00 | 0.00 | 48 | 813.8 |
| 20260507005751 | 50 | 15 | 8.7 | 8.7 | 0.00 | 0.00 | 0.00 | 48 | 813.8 |
| 20260507005641 | 50 | 15 | 8.7 | 9.6 | 0.00 | 0.00 | 0.00 | 49 | 813.8 |
| 20260507005421 | 50 | 13 | 8.7 | 9.6 | 0.00 | 0.00 | 0.00 | 48 | 813.8 |
| 20260507005311 | 50 | 12 | 8.7 | 9.6 | 0.00 | 0.00 | 0.00 | 48 | 813.8 |
| 20260507005201 | 50 | 11 | 8.7 | 9.6 | 0.00 | 0.00 | 0.00 | 48 | 813.8 |
| 20260507005051 | 50 | 11 | 7.8 | 8.7 | 0.00 | 0.00 | 0.00 | 48 | 813.8 |
| 20260507004941 | 50 | 11 | 7.8 | 7.8 | 0.00 | 0.00 | 0.00 | 47 | 813.8 |
| 20260507004831 | 50 | 11 | 7.8 | 7.8 | 0.00 | 0.00 | 0.00 | 47 | 813.8 |
| 20260507004721 | 50 | 11 | 7.8 | 7.8 | 0.00 | 0.00 | 0.00 | 47 | 813.8 |
| 20260507004611 | 50 | 11 | 7.8 | 7.8 | 0.00 | 0.00 | 0.00 | 47 | 813.8 |
| 20260507004501 | 50 | 8 | 7.8 | 8.7 | 0.00 | 0.00 | 0.00 | 48 | 813.8 |
| 20260507004351 | 50 | 11 | 7.8 | 7.8 | 0.00 | 0.00 | 0.00 | 48 | 813.8 |
| 20260507004241 | 50 | 12 | 7.0 | 7.8 | 0.00 | 0.00 | 0.00 | 48 | 813.8 |
| 20260507003911 | 50 | 12 | 6.1 | 7.0 | 0.00 | 0.00 | 0.00 | 49 | 813.8 |
| 20260507003801 | 50 | 12 | 6.1 | 6.1 | 0.00 | 0.00 | 0.00 | 49 | 813.8 |
| 20260507003651 | 50 | 11 | 5.2 | 6.1 | 0.00 | 0.00 | 0.00 | 49 | 813.8 |
| 20260507003541 | 50 | 11 | 5.2 | 5.2 | 0.00 | 0.00 | 0.00 | 49 | 813.8 |
| 20260507003211 | 50 | 10 | 5.2 | 5.2 | 0.00 | 0.00 | 0.00 | 49 | 813.8 |
| 20260507003101 | 50 | 10 | 5.2 | 5.2 | 0.00 | 0.00 | 0.00 | 49 | 813.8 |
| 20260507002951 | 50 | 6 | 5.2 | 5.2 | 0.00 | 0.00 | 0.00 | 48 | 813.8 |
| 20260507002840 | 49 | 3 | 5.2 | 5.2 | 0.00 | 0.00 | 0.00 | 48 | 813.8 |
| 20260507002731 | 49 | 2 | 5.2 | 5.2 | 0.00 | 0.00 | 0.00 | 50 | 813.8 |
| 20260507002621 | 49 | 2 | 5.2 | 5.2 | 0.00 | 0.00 | 0.00 | 50 | 813.8 |
| 20260507002511 | 49 | 3 | 5.2 | 5.2 | 0.00 | 0.00 | 0.00 | 49 | 813.8 |
| 20260507002401 | 49 | 0 | 4.3 | 5.2 | 0.00 | 0.00 | 0.00 | 48 | 813.8 |
| 20260507002251 | 49 | 0 | 4.3 | 5.2 | 0.00 | 0.00 | 0.00 | 50 | 813.8 |
| 20260507002141 | 49 | 354 | 4.3 | 4.3 | 0.00 | 0.00 | 0.00 | 48 | 813.8 |
| 20260507002031 | 49 | 354 | 4.3 | 5.2 | 0.00 | 0.00 | 0.00 | 48 | 813.8 |
| 20260507001921 | 49 | 354 | 4.3 | 5.2 | 0.00 | 0.00 | 0.00 | 47 | 813.8 |
| 20260507001701 | 49 | 338 | 3.5 | 4.3 | 0.00 | 0.00 | 0.00 | 47 | 813.8 |
| 20260507001441 | 49 | 322 | 2.6 | 3.5 | 0.00 | 0.00 | 0.00 | 48 | 813.8 |
| 20260507001331 | 48 | 313 | 2.6 | 3.5 | 0.00 | 0.00 | 0.00 | 49 | 813.8 |
| 20260507001221 | 47 | 312 | 3.5 | 3.5 | 0.00 | 0.00 | 0.00 | 49 | 813.8 |
| 20260507001111 | 47 | 312 | 2.6 | 3.5 | 0.00 | 0.00 | 0.00 | 50 | 813.8 |
| 20260507001000 | 47 | 309 | 2.6 | 2.6 | 0.00 | 0.00 | 0.00 | 50 | 813.8 |
| 20260507000741 | 47 | 301 | 1.7 | 1.7 | 0.00 | 0.00 | 0.00 | 52 | 813.8 |
| 20260507000520 | 47 | 297 | 1.7 | 1.7 | 0.00 | 0.00 | 0.00 | 56 | 813.8 |
| 20260507000412 | 47 | 294 | 2.6 | 2.6 | 0.00 | 0.00 | 0.00 | 56 | 813.8 |
| 20260507000301 | 47 | 289 | 3.5 | 3.5 | 0.00 | 0.00 | 0.00 | 56 | 813.8 |
| 20260507000151 | 47 | 283 | 3.5 | 4.3 | 0.00 | 0.00 | 0.00 | 56 | 813.8 |
| 20260507000041 | 47 | 283 | 3.5 | 3.5 | 0.00 | 0.00 | 0.00 | 57 | 813.8 |
| 20260506235821 | 47 | 276 | 3.5 | 4.3 | 0.00 | 0.00 | 0.00 | 57 | 813.8 |
| 20260506235710 | 47 | 287 | 3.5 | 5.2 | 0.00 | 0.00 | 0.00 | 57 | 813.8 |
| 20260506235602 | 47 | 280 | 4.3 | 5.2 | 0.00 | 0.00 | 0.00 | 56 | 813.8 |
| 20260506235451 | 47 | 280 | 4.3 | 5.2 | 0.00 | 0.00 | 0.00 | 56 | 813.8 |
| 20260506235340 | 47 | 278 | 4.3 | 5.2 | 0.00 | 0.00 | 0.00 | 55 | 813.8 |
| 20260506235231 | 48 | 284 | 3.5 | 5.2 | 0.00 | 0.00 | 0.00 | 54 | 813.8 |
| 20260506235121 | 48 | 292 | 3.5 | 4.3 | 0.00 | 0.00 | 0.00 | 54 | 813.8 |
| 20260506235011 | 48 | 287 | 4.3 | 5.2 | 0.00 | 0.00 | 0.00 | 52 | 813.8 |
| 20260506234901 | 48 | 302 | 4.3 | 5.2 | 0.00 | 0.00 | 0.00 | 52 | 813.8 |
| 20260506234750 | 48 | 300 | 4.3 | 5.2 | 0.00 | 0.00 | 0.00 | 51 | 813.8 |
| 20260506234420 | 48 | 278 | 3.5 | 3.5 | 0.00 | 0.00 | 0.00 | 49 | 813.8 |
| 20260506234310 | 48 | 284 | 3.5 | 4.3 | 0.00 | 0.00 | 0.00 | 49 | 813.8 |
| 20260506234201 | 48 | 291 | 3.5 | 4.3 | 0.00 | 0.00 | 0.00 | 50 | 813.8 |
| 20260506234051 | 48 | 292 | 2.6 | 3.5 | 0.00 | 0.00 | 0.00 | 51 | 813.8 |
| 20260506233721 | 48 | 273 | 3.5 | 3.5 | 0.00 | 0.00 | 0.00 | 51 | 813.9 |
| 20260506233611 | 48 | 269 | 3.5 | 5.2 | 0.00 | 0.00 | 0.00 | 52 | 813.9 |
| 20260506233500 | 48 | 269 | 2.6 | 3.5 | 0.00 | 0.00 | 0.00 | 52 | 813.9 |
| 20260506233350 | 48 | 261 | 2.6 | 2.6 | 0.00 | 0.00 | 0.00 | 51 | 813.9 |
| 20260506233240 | 48 | 258 | 1.7 | 2.6 | 0.00 | 0.00 | 0.00 | 51 | 813.9 |
| 20260506233131 | 48 | 263 | 2.6 | 3.5 | 0.00 | 0.00 | 0.00 | 51 | 814.1 |
| 20260506233021 | 48 | 264 | 3.5 | 4.3 | 0.00 | 0.00 | 0.00 | 50 | 813.9 |
| 20260506232910 | 48 | 264 | 2.6 | 3.5 | 0.00 | 0.00 | 0.00 | 50 | 813.9 |
| 20260506232800 | 48 | 306 | 3.5 | 4.3 | 0.00 | 0.00 | 0.00 | 48 | 813.9 |
| 20260506232651 | 49 | 271 | 2.6 | 4.3 | 0.00 | 0.00 | 0.00 | 50 | 814.1 |
| 20260506232540 | 49 | 259 | 2.6 | 3.5 | 0.00 | 0.00 | 0.00 | 49 | 813.9 |
| 20260506232430 | 49 | 255 | 2.6 | 3.5 | 0.00 | 0.00 | 0.00 | 49 | 813.9 |
| 20260506232320 | 49 | 260 | 2.6 | 4.3 | 0.00 | 0.00 | 0.00 | 48 | 814.1 |
| 20260506232211 | 48 | 270 | 4.3 | 4.3 | 0.00 | 0.00 | 0.00 | 48 | 813.9 |
| 20260506232100 | 48 | 267 | 5.2 | 6.1 | 0.00 | 0.00 | 0.00 | 47 | 814.1 |
| 20260506231951 | 48 | 263 | 5.2 | 6.1 | 0.00 | 0.00 | 0.00 | 46 | 813.9 |
| 20260506231841 | 48 | 265 | 4.3 | 5.2 | 0.00 | 0.00 | 0.00 | 48 | 813.9 |
| 20260506231620 | 48 | 270 | 4.3 | 6.1 | 0.00 | 0.00 | 0.00 | 48 | 813.9 |
| 20260506231510 | 48 | 265 | 5.2 | 6.1 | 0.00 | 0.00 | 0.00 | 49 | 813.9 |
| 20260506231401 | 48 | 266 | 5.2 | 6.1 | 0.00 | 0.00 | 0.00 | 50 | 813.9 |
| 20260506231250 | 48 | 263 | 5.2 | 6.1 | 0.00 | 0.00 | 0.00 | 50 | 813.9 |
| 20260506231140 | 48 | 254 | 5.2 | 6.1 | 0.00 | 0.00 | 0.00 | 48 | 813.9 |
| 20260506231030 | 48 | 253 | 3.5 | 5.2 | 0.00 | 0.00 | 0.00 | 54 | 813.9 |
| 20260506230920 | 48 | 259 | 3.5 | 4.3 | 0.00 | 0.00 | 0.00 | 54 | 813.9 |
| 20260506230811 | 48 | 264 | 2.6 | 3.5 | 0.00 | 0.00 | 0.00 | 54 | 813.9 |
| 20260506230701 | 48 | 258 | 3.5 | 4.3 | 0.00 | 0.00 | 0.00 | 53 | 813.9 |
| 20260506230551 | 48 | 239 | 3.5 | 3.5 | 0.00 | 0.00 | 0.00 | 51 | 813.9 |
| 20260506230441 | 48 | 233 | 3.5 | 4.3 | 0.00 | 0.00 | 0.00 | 52 | 813.9 |
| 20260506230221 | 48 | 221 | 2.6 | 3.5 | 0.00 | 0.00 | 0.00 | 54 | 813.9 |
| 20260506225850 | 48 | 243 | 3.5 | 3.5 | 0.00 | 0.00 | 0.00 | 55 | 814.1 |
| 20260506225740 | 48 | 240 | 3.5 | 4.3 | 0.00 | 0.00 | 0.00 | 55 | 813.9 |
| 20260506225411 | 48 | 217 | 2.6 | 3.5 | 0.00 | 0.00 | 0.00 | 53 | 814.1 |
| 20260506225300 | 48 | 236 | 4.3 | 5.2 | 0.00 | 0.00 | 0.00 | 53 | 814.1 |
| 20260506225151 | 48 | 237 | 4.3 | 5.2 | 0.00 | 0.00 | 0.00 | 54 | 814.1 |
| 20260506224931 | 48 | 256 | 4.3 | 5.2 | 0.00 | 0.00 | 0.00 | 56 | 813.9 |
| 20260506224820 | 48 | 244 | 4.3 | 5.2 | 0.00 | 0.00 | 0.00 | 55 | 813.9 |
| 20260506224710 | 48 | 238 | 4.3 | 5.2 | 0.00 | 0.00 | 0.00 | 55 | 814.1 |
| 20260506224601 | 48 | 235 | 4.3 | 5.2 | 0.00 | 0.00 | 0.00 | 54 | 813.9 |
| 20260506224451 | 48 | 253 | 5.2 | 6.1 | 0.00 | 0.00 | 0.00 | 56 | 813.9 |
| 20260506224341 | 48 | 246 | 4.3 | 5.2 | 0.00 | 0.00 | 0.00 | 57 | 813.9 |
| 20260506224230 | 48 | 251 | 4.3 | 5.2 | 0.00 | 0.00 | 0.00 | 57 | 813.9 |
| 20260506224120 | 48 | 256 | 6.1 | 7.8 | 0.00 | 0.00 | 0.00 | 56 | 813.9 |
| 20260506224010 | 48 | 262 | 5.2 | 7.8 | 0.00 | 0.00 | 0.00 | 56 | 813.9 |
| 20260506223900 | 48 | 251 | 3.5 | 7.8 | 0.00 | 0.00 | 0.00 | 57 | 813.9 |
| 20260506223750 | 48 | 236 | 3.5 | 5.2 | 0.00 | 0.00 | 0.00 | 56 | 813.9 |
| 20260506223640 | 47 | 252 | 5.2 | 6.1 | 0.00 | 0.00 | 0.00 | 55 | 813.9 |
| 20260506223530 | 47 | 247 | 5.2 | 7.0 | 0.00 | 0.00 | 0.00 | 59 | 813.9 |
| 20260506223310 | 47 | 224 | 4.3 | 5.2 | 0.00 | 0.00 | 0.00 | 63 | 813.9 |
| 20260506223200 | 47 | 247 | 5.2 | 6.1 | 0.00 | 0.00 | 0.00 | 62 | 813.9 |
| 20260506223050 | 46 | 259 | 6.1 | 7.8 | 0.00 | 0.00 | 0.00 | 63 | 813.9 |
| 20260506222940 | 46 | 258 | 7.0 | 8.7 | 0.00 | 0.00 | 0.00 | 65 | 813.9 |
| 20260506222830 | 47 | 222 | 3.5 | 5.2 | 0.00 | 0.00 | 0.00 | 69 | 814.2 |
| 20260506222720 | 47 | 281 | 0.9 | 3.5 | 0.00 | 0.00 | 0.00 | 68 | 814.2 |
| 20260506222610 | 47 | 202 | 1.7 | 3.5 | 0.00 | 0.00 | 0.00 | 67 | 814.1 |
| 20260506222500 | 46 | 254 | 5.2 | 7.8 | 0.00 | 0.00 | 0.00 | 64 | 814.2 |
| 20260506222350 | 46 | 256 | 7.0 | 8.7 | 0.00 | 0.00 | 0.00 | 65 | 814.1 |
| 20260506222240 | 46 | 245 | 6.1 | 7.8 | 0.00 | 0.00 | 0.00 | 66 | 814.1 |
| 20260506222131 | 46 | 246 | 6.1 | 8.7 | 0.00 | 0.00 | 0.00 | 72 | 814.1 |
| 20260506222020 | 46 | 241 | 2.6 | 5.2 | 0.00 | 0.00 | 0.00 | 72 | 814.1 |
| 20260506221910 | 46 | 243 | 3.5 | 5.2 | 0.00 | 0.00 | 0.00 | 70 | 814.1 |
| 20260506221800 | 46 | 244 | 3.5 | 5.2 | 0.00 | 0.00 | 0.00 | 73 | 814.2 |
| 20260506221650 | 46 | 225 | 3.5 | 5.2 | 0.00 | 0.00 | 0.00 | 72 | 814.2 |
| 20260506221320 | 45 | 256 | 6.1 | 7.8 | 0.00 | 0.00 | 0.00 | 70 | 813.9 |
| 20260506221210 | 45 | 247 | 7.0 | 9.6 | 0.00 | 0.00 | 0.00 | 72 | 814.1 |
| 20260506220840 | 45 | 232 | 3.5 | 8.7 | 0.00 | 0.00 | 0.00 | 80 | 814.2 |
| 20260506220730 | 45 | 219 | 2.6 | 7.0 | 0.00 | 0.00 | 0.00 | 79 | 814.1 |
| 20260506220400 | 44 | 251 | 7.0 | 12.2 | 0.00 | 0.00 | 0.00 | 81 | 814.1 |
| 20260506220250 | 45 | 250 | 3.5 | 7.0 | 0.00 | 0.00 | 0.00 | 81 | 813.9 |
| 20260506220140 | 45 | 252 | 7.8 | 12.2 | 0.00 | 0.00 | 0.00 | 81 | 813.9 |
| 20260506220030 | 44 | 245 | 8.7 | 12.2 | 0.00 | 0.00 | 0.00 | 82 | 814.1 |
| 20260506215920 | 44 | 247 | 10.4 | 13.9 | 0.00 | 0.00 | 0.00 | 83 | 814.1 |
| 20260506215810 | 44 | 247 | 8.7 | 12.2 | 0.00 | 0.00 | 0.00 | 83 | 814.1 |
| 20260506215700 | 44 | 243 | 6.1 | 9.6 | 0.00 | 0.00 | 0.00 | 83 | 814.1 |
| 20260506215440 | 44 | 247 | 10.4 | 13.9 | 0.00 | 0.00 | 0.00 | 84 | 813.9 |
| 20260506215330 | 44 | 245 | 10.4 | 14.8 | 0.00 | 0.00 | 0.00 | 85 | 814.1 |
| 20260506215110 | 44 | 230 | 7.8 | 8.7 | 0.00 | 0.00 | 0.00 | 84 | 813.9 |
| 20260506215000 | 44 | 242 | 7.8 | 10.4 | 0.00 | 0.00 | 0.00 | 84 | 814.1 |
| 20260506214850 | 44 | 238 | 7.0 | 9.6 | 0.00 | 0.00 | 0.00 | 83 | 814.1 |
| 20260506214740 | 44 | 247 | 7.0 | 10.4 | 0.00 | 0.00 | 0.00 | 84 | 814.1 |
| 20260506214630 | 44 | 239 | 8.7 | 11.3 | 0.00 | 0.00 | 0.00 | 84 | 813.9 |
| 20260506214520 | 44 | 242 | 10.4 | 12.2 | 0.00 | 0.00 | 0.00 | 84 | 813.9 |
| 20260506214150 | 44 | 243 | 8.7 | 10.4 | 0.00 | 0.00 | 0.00 | 85 | 814.1 |
| 20260506214040 | 44 | 243 | 7.0 | 8.7 | 0.00 | 0.00 | 0.00 | 85 | 814.1 |
| 20260506213930 | 44 | 242 | 7.8 | 10.4 | 0.00 | 0.00 | 0.00 | 84 | 813.9 |
| 20260506213820 | 44 | 234 | 7.0 | 8.7 | 0.00 | 0.00 | 0.00 | 85 | 814.1 |
| 20260506213710 | 44 | 239 | 8.7 | 10.4 | 0.00 | 0.00 | 0.00 | 85 | 813.9 |
| 20260506213600 | 44 | 243 | 10.4 | 11.3 | 0.00 | 0.00 | 0.00 | 85 | 813.9 |
| 20260506213450 | 44 | 246 | 10.4 | 12.2 | 0.00 | 0.00 | 0.00 | 86 | 813.9 |
| 20260506213340 | 44 | 245 | 10.4 | 11.3 | 0.00 | 0.00 | 0.00 | 86 | 813.9 |
| 20260506213230 | 44 | 242 | 9.6 | 11.3 | 0.00 | 0.00 | 0.00 | 86 | 813.9 |
| 20260506213120 | 44 | 244 | 9.6 | 12.2 | 0.00 | 0.00 | 0.00 | 86 | 814.1 |
| 20260506213010 | 44 | 240 | 8.7 | 10.4 | 0.00 | 0.00 | 0.00 | 86 | 813.9 |
| 20260506212900 | 44 | 248 | 9.6 | 12.2 | 0.00 | 0.00 | 0.00 | 86 | 813.9 |
| 20260506212750 | 44 | 246 | 11.3 | 13.9 | 0.00 | 0.00 | 0.00 | 86 | 813.9 |
| 20260506212640 | 44 | 246 | 10.4 | 14.8 | 0.00 | 0.00 | 0.00 | 86 | 813.8 |
| 20260506212200 | 44 | 242 | 10.4 | 12.2 | 0.00 | 0.00 | 0.00 | 88 | 813.9 |
| 20260506212050 | 44 | 242 | 9.6 | 13.0 | 0.00 | 0.00 | 0.00 | 88 | 813.9 |
| 20260506211940 | 43 | 248 | 7.8 | 9.6 | 0.00 | 0.00 | 0.00 | 88 | 813.9 |
| 20260506211830 | 43 | 243 | 7.8 | 9.6 | 0.00 | 0.00 | 0.00 | 89 | 813.9 |
| 20260506211720 | 43 | 242 | 7.0 | 8.7 | 0.00 | 0.00 | 0.00 | 89 | 814.1 |
| 20260506211610 | 43 | 248 | 8.7 | 11.3 | 0.00 | 0.00 | 0.00 | 88 | 814.1 |
| 20260506211500 | 43 | 239 | 7.0 | 8.7 | 0.00 | 0.00 | 0.00 | 88 | 813.9 |
| 20260506211350 | 43 | 244 | 7.0 | 10.4 | 0.00 | 0.00 | 0.00 | 88 | 814.1 |
| 20260506211240 | 43 | 247 | 7.8 | 10.4 | 0.00 | 0.00 | 0.00 | 88 | 814.1 |
| 20260506211020 | 43 | 246 | 7.0 | 9.6 | 0.00 | 0.00 | 0.00 | 88 | 813.9 |
| 20260506210910 | 43 | 248 | 8.7 | 10.4 | 0.00 | 0.00 | 0.00 | 88 | 814.1 |
| 20260506210800 | 43 | 249 | 9.6 | 12.2 | 0.00 | 0.00 | 0.00 | 89 | 813.9 |
| 20260506210650 | 43 | 247 | 7.0 | 10.4 | 0.00 | 0.00 | 0.00 | 89 | 814.1 |
| 20260506210540 | 43 | 243 | 7.0 | 8.7 | 0.00 | 0.00 | 0.00 | 89 | 814.1 |
| 20260506210430 | 43 | 252 | 8.7 | 11.3 | 0.00 | 0.00 | 0.00 | 89 | 814.1 |
| 20260506210320 | 43 | 232 | 8.7 | 10.4 | 0.00 | 0.00 | 0.00 | 89 | 814.1 |
| 20260506210100 | 43 | 251 | 8.7 | 11.3 | 0.00 | 0.00 | 0.00 | 89 | 814.2 |
| 20260506205950 | 43 | 231 | 7.0 | 10.4 | 0.00 | 0.00 | 0.00 | 89 | 813.9 |
| 20260506205840 | 43 | 222 | 7.8 | 10.4 | 0.00 | 0.00 | 0.00 | 89 | 814.2 |
| 20260506205730 | 43 | 237 | 8.7 | 10.4 | 0.00 | 0.00 | 0.00 | 89 | 813.9 |
| 20260506205620 | 43 | 247 | 9.6 | 12.2 | 0.00 | 0.00 | 0.00 | 90 | 813.9 |
| 20260506205510 | 43 | 249 | 8.7 | 12.2 | 0.00 | 0.00 | 0.00 | 89 | 813.9 |
| 20260506205400 | 43 | 246 | 8.7 | 11.3 | 0.00 | 0.00 | 0.00 | 89 | 813.9 |
| 20260506205250 | 43 | 236 | 7.0 | 9.6 | 0.00 | 0.00 | 0.00 | 89 | 814.1 |
| 20260506205140 | 43 | 235 | 9.6 | 12.2 | 0.00 | 0.00 | 0.00 | 89 | 814.1 |
| 20260506205030 | 44 | 230 | 7.8 | 11.3 | 0.00 | 0.00 | 0.00 | 88 | 813.9 |
| 20260506204920 | 44 | 241 | 7.8 | 10.4 | 0.00 | 0.00 | 0.00 | 88 | 813.9 |
| 20260506204810 | 43 | 249 | 9.6 | 11.3 | 0.00 | 0.00 | 0.00 | 89 | 814.1 |
| 20260506204700 | 43 | 248 | 8.7 | 11.3 | 0.00 | 0.00 | 0.00 | 89 | 814.1 |
| 20260506204550 | 43 | 246 | 8.7 | 11.3 | 0.00 | 0.00 | 0.00 | 90 | 813.9 |
| 20260506204440 | 43 | 247 | 8.7 | 11.3 | 0.00 | 0.00 | 0.00 | 90 | 814.1 |
| 20260506204330 | 43 | 245 | 7.8 | 11.3 | 0.00 | 0.00 | 0.00 | 90 | 813.9 |
| 20260506204110 | 43 | 237 | 7.8 | 10.4 | 0.00 | 0.00 | 0.00 | 90 | 813.9 |
| 20260506204000 | 43 | 245 | 9.6 | 12.2 | 0.00 | 0.00 | 0.00 | 91 | 814.1 |
| 20260506203740 | 43 | 251 | 8.7 | 11.3 | 0.00 | 0.00 | 0.00 | 91 | 813.9 |
| 20260506203630 | 43 | 239 | 7.8 | 11.3 | 0.00 | 0.00 | 0.00 | 91 | 814.1 |
| 20260506203520 | 43 | 251 | 8.7 | 10.4 | 0.00 | 0.00 | 0.00 | 91 | 814.1 |
| 20260506203410 | 43 | 244 | 7.8 | 10.4 | 0.00 | 0.00 | 0.00 | 91 | 813.9 |
| 20260506203300 | 43 | 243 | 7.8 | 12.2 | 0.00 | 0.00 | 0.00 | 91 | 813.9 |
| 20260506203150 | 43 | 245 | 7.8 | 10.4 | 0.00 | 0.00 | 0.00 | 91 | 813.9 |
| 20260506203040 | 43 | 250 | 8.7 | 11.3 | 0.00 | 0.00 | 0.00 | 91 | 813.9 |
| 20260506202930 | 43 | 251 | 7.8 | 11.3 | 0.00 | 0.00 | 0.00 | 91 | 814.1 |
| 20260506202820 | 43 | 240 | 7.8 | 10.4 | 0.00 | 0.00 | 0.00 | 91 | 813.9 |
| 20260506202710 | 43 | 237 | 7.8 | 9.6 | 0.00 | 0.00 | 0.00 | 91 | 813.9 |
| 20260506202600 | 43 | 242 | 7.0 | 9.6 | 0.00 | 0.00 | 0.00 | 90 | 814.2 |
| 20260506202340 | 43 | 239 | 8.7 | 10.4 | 0.00 | 0.00 | 0.00 | 90 | 814.1 |
| 20260506202230 | 43 | 238 | 8.7 | 12.2 | 0.00 | 0.00 | 0.00 | 89 | 813.9 |
| 20260506202120 | 43 | 246 | 8.7 | 11.3 | 0.00 | 0.00 | 0.00 | 89 | 814.1 |
| 20260506201900 | 43 | 237 | 9.6 | 13.0 | 0.00 | 0.00 | 0.00 | 89 | 814.1 |
| 20260506201750 | 43 | 246 | 11.3 | 14.8 | 0.00 | 0.00 | 0.00 | 90 | 813.9 |
| 20260506201640 | 43 | 238 | 9.6 | 12.2 | 0.00 | 0.00 | 0.00 | 90 | 813.9 |
| 20260506201530 | 43 | 245 | 8.7 | 11.3 | 0.00 | 0.00 | 0.00 | 90 | 813.9 |
| 20260506201420 | 43 | 240 | 7.8 | 10.4 | 0.00 | 0.00 | 0.00 | 90 | 814.1 |
| 20260506201310 | 43 | 242 | 9.6 | 14.8 | 0.00 | 0.00 | 0.00 | 91 | 813.9 |
| 20260506201050 | 43 | 253 | 8.7 | 13.0 | 0.00 | 0.00 | 0.00 | 91 | 813.9 |
| 20260506200940 | 43 | 242 | 8.7 | 11.3 | 0.00 | 0.00 | 0.00 | 91 | 814.1 |
| 20260506200829 | 43 | 247 | 10.4 | 13.0 | 0.00 | 0.00 | 0.00 | 91 | 814.1 |
| 20260506200720 | 43 | 250 | 8.7 | 12.2 | 0.00 | 0.00 | 0.00 | 91 | 814.1 |
| 20260506200609 | 43 | 247 | 9.6 | 13.0 | 0.00 | 0.00 | 0.00 | 92 | 813.9 |
| 20260506200459 | 43 | 250 | 10.4 | 13.9 | 0.00 | 0.00 | 0.00 | 91 | 813.9 |
| 20260506200350 | 43 | 243 | 8.7 | 11.3 | 0.00 | 0.00 | 0.00 | 92 | 813.9 |
| 20260506200240 | 43 | 246 | 9.6 | 13.0 | 0.00 | 0.00 | 0.00 | 92 | 814.1 |
| 20260506200020 | 43 | 244 | 8.7 | 12.2 | 0.00 | 0.00 | 0.00 | 92 | 814.2 |
| 20260506195909 | 43 | 245 | 9.6 | 11.3 | 0.00 | 0.00 | 0.00 | 91 | 814.2 |
| 20260506195800 | 43 | 243 | 8.7 | 12.2 | 0.00 | 0.00 | 0.00 | 91 | 814.1 |
| 20260506195650 | 43 | 240 | 8.7 | 12.2 | 0.00 | 0.00 | 0.00 | 91 | 814.1 |
| 20260506195540 | 43 | 240 | 8.7 | 13.0 | 0.00 | 0.00 | 0.00 | 91 | 814.2 |
| 20260506195429 | 43 | 242 | 9.6 | 13.0 | 0.00 | 0.00 | 0.00 | 90 | 814.1 |
| 20260506195319 | 43 | 246 | 9.6 | 13.9 | 0.00 | 0.00 | 0.00 | 90 | 814.1 |
| 20260506195059 | 43 | 248 | 11.3 | 13.9 | 0.00 | 0.00 | 0.00 | 90 | 813.9 |
| 20260506194950 | 43 | 249 | 11.3 | 14.8 | 0.00 | 0.00 | 0.00 | 91 | 813.9 |
| 20260506194840 | 43 | 249 | 12.2 | 14.8 | 0.00 | 0.00 | 0.00 | 91 | 813.9 |
| 20260506194729 | 43 | 248 | 11.3 | 13.9 | 0.00 | 0.00 | 0.00 | 92 | 814.1 |
| 20260506194619 | 43 | 248 | 12.2 | 15.6 | 0.00 | 0.00 | 0.00 | 91 | 813.9 |
| 20260506194510 | 43 | 245 | 10.4 | 13.9 | 0.00 | 0.00 | 0.00 | 91 | 813.9 |
| 20260506194400 | 43 | 248 | 10.4 | 14.8 | 0.00 | 0.00 | 0.00 | 90 | 814.1 |
| 20260506194249 | 43 | 249 | 11.3 | 14.8 | 0.00 | 0.00 | 0.00 | 90 | 813.8 |
| 20260506194139 | 43 | 249 | 11.3 | 14.8 | 0.00 | 0.00 | 0.00 | 91 | 813.9 |
| 20260506194029 | 43 | 248 | 10.4 | 15.6 | 0.00 | 0.00 | 0.00 | 90 | 813.9 |
| 20260506193920 | 43 | 245 | 10.4 | 14.8 | 0.00 | 0.00 | 0.00 | 91 | 813.9 |
| 20260506193810 | 43 | 239 | 11.3 | 15.6 | 0.00 | 0.00 | 0.00 | 90 | 813.9 |
| 20260506193659 | 43 | 246 | 11.3 | 16.5 | 0.00 | 0.00 | 0.00 | 91 | 813.9 |
| 20260506193549 | 43 | 246 | 11.3 | 15.6 | 0.00 | 0.00 | 0.00 | 91 | 813.9 |
| 20260506193329 | 43 | 240 | 10.4 | 13.0 | 0.00 | 0.00 | 0.00 | 91 | 813.9 |
| 20260506193219 | 43 | 241 | 10.4 | 13.9 | 0.00 | 0.00 | 0.00 | 92 | 814.1 |
| 20260506193109 | 43 | 244 | 11.3 | 15.6 | 0.00 | 0.00 | 0.00 | 91 | 813.9 |
| 20260506192959 | 43 | 236 | 9.6 | 12.2 | 0.00 | 0.00 | 0.00 | 90 | 813.9 |
| 20260506192850 | 43 | 234 | 10.4 | 13.9 | 0.00 | 0.00 | 0.00 | 90 | 813.9 |
| 20260506192739 | 43 | 229 | 10.4 | 13.9 | 0.00 | 0.00 | 0.00 | 90 | 813.9 |
| 20260506192629 | 43 | 236 | 11.3 | 14.8 | 0.00 | 0.00 | 0.00 | 91 | 814.1 |
| 20260506192519 | 43 | 244 | 12.2 | 16.5 | 0.00 | 0.00 | 0.00 | 91 | 813.9 |
| 20260506192409 | 43 | 241 | 10.4 | 13.0 | 0.00 | 0.00 | 0.00 | 91 | 814.1 |
| 20260506192259 | 43 | 236 | 10.4 | 13.9 | 0.00 | 0.00 | 0.00 | 91 | 814.1 |
| 20260506192149 | 43 | 238 | 10.4 | 13.9 | 0.00 | 0.00 | 0.00 | 91 | 814.1 |
| 20260506192040 | 43 | 244 | 11.3 | 16.5 | 0.00 | 0.00 | 0.00 | 92 | 813.9 |
| 20260506191929 | 43 | 241 | 12.2 | 16.5 | 0.00 | 0.00 | 0.00 | 92 | 813.9 |
| 20260506191819 | 43 | 243 | 10.4 | 14.8 | 0.00 | 0.00 | 0.00 | 92 | 813.9 |
| 20260506191709 | 43 | 241 | 10.4 | 15.6 | 0.00 | 0.00 | 0.00 | 92 | 813.9 |
| 20260506191559 | 43 | 243 | 11.3 | 14.8 | 0.00 | 0.00 | 0.00 | 92 | 813.9 |
| 20260506191340 | 43 | 239 | 10.4 | 13.9 | 0.00 | 0.00 | 0.00 | 92 | 814.1 |
| 20260506191229 | 43 | 240 | 11.3 | 14.8 | 0.00 | 0.00 | 0.00 | 92 | 813.9 |
| 20260506191119 | 43 | 241 | 10.4 | 13.0 | 0.00 | 0.00 | 0.00 | 92 | 813.9 |
| 20260506191009 | 43 | 239 | 10.4 | 13.9 | 0.00 | 0.00 | 0.00 | 93 | 813.9 |
| 20260506190859 | 43 | 244 | 10.4 | 14.8 | 0.00 | 0.00 | 0.00 | 93 | 813.9 |
| 20260506190749 | 43 | 241 | 10.4 | 13.0 | 0.00 | 0.00 | 0.00 | 94 | 813.9 |
| 20260506190639 | 43 | 244 | 12.2 | 16.5 | 0.00 | 0.00 | 0.00 | 95 | 813.8 |
| 20260506190529 | 42 | 246 | 12.2 | 15.6 | 0.00 | 0.00 | 0.00 | 96 | 813.8 |
| 20260506190159 | 42 | 242 | 10.4 | 13.0 | 0.00 | 0.00 | 0.00 | 96 | 813.8 |
| 20260506190049 | 42 | 241 | 9.6 | 13.9 | 0.00 | 0.00 | 0.00 | 97 | 813.9 |
| 20260506185940 | 42 | 243 | 9.6 | 12.2 | 0.00 | 0.00 | 0.00 | 96 | 813.9 |
| 20260506185830 | 42 | 241 | 9.6 | 13.0 | 0.00 | 0.00 | 0.00 | 96 | 813.9 |
| 20260506185459 | 42 | 241 | 9.6 | 13.0 | 0.00 | 0.00 | 0.00 | 96 | 813.9 |
| 20260506185240 | 42 | 244 | 8.7 | 12.2 | 0.00 | 0.00 | 0.00 | 96 | 813.9 |
| 20260506185129 | 42 | 245 | 10.4 | 14.8 | 0.00 | 0.00 | 0.00 | 97 | 813.8 |
| 20260506185020 | 42 | 245 | 10.4 | 13.9 | 0.00 | 0.00 | 0.00 | 97 | 813.9 |
| 20260506184909 | 42 | 241 | 9.6 | 14.8 | 0.00 | 0.00 | 0.00 | 97 | 813.8 |
| 20260506184650 | 42 | 241 | 8.7 | 10.4 | 0.00 | 0.00 | 0.00 | 97 | 813.8 |
| 20260506184540 | 42 | 236 | 7.8 | 10.4 | 0.00 | 0.00 | 0.00 | 97 | 813.8 |
| 20260506184430 | 42 | 239 | 9.6 | 12.2 | 0.00 | 0.00 | 0.00 | 97 | 813.8 |
| 20260506184320 | 42 | 244 | 9.6 | 12.2 | 0.00 | 0.00 | 0.00 | 97 | 813.8 |
| 20260506184209 | 42 | 244 | 9.6 | 12.2 | 0.00 | 0.00 | 0.00 | 97 | 813.8 |
| 20260506184059 | 42 | 247 | 8.7 | 11.3 | 0.00 | 0.00 | 0.00 | 97 | 813.8 |
| 20260506183949 | 42 | 245 | 9.6 | 12.2 | 0.00 | 0.00 | 0.00 | 97 | 813.8 |
| 20260506183730 | 42 | 244 | 8.7 | 11.3 | 0.00 | 0.00 | 0.00 | 96 | 813.8 |
| 20260506183619 | 42 | 243 | 8.7 | 13.0 | 0.00 | 0.00 | 0.00 | 96 | 813.8 |
| 20260506183509 | 42 | 244 | 9.6 | 12.2 | 0.00 | 0.00 | 0.00 | 96 | 813.8 |
| 20260506183400 | 42 | 244 | 8.7 | 11.3 | 0.00 | 0.00 | 0.00 | 96 | 813.8 |
| 20260506183250 | 42 | 243 | 8.7 | 10.4 | 0.00 | 0.00 | 0.00 | 97 | 813.8 |
| 20260506183030 | 42 | 242 | 9.6 | 12.2 | 0.00 | 0.00 | 0.00 | 96 | 813.8 |
| 20260506182809 | 42 | 243 | 8.7 | 10.4 | 0.00 | 0.00 | 0.00 | 96 | 813.8 |
| 20260506182700 | 42 | 237 | 8.7 | 11.3 | 0.00 | 0.00 | 0.00 | 96 | 813.8 |
| 20260506182439 | 42 | 244 | 8.7 | 10.4 | 0.00 | 0.00 | 0.00 | 96 | 813.8 |
| 20260506182329 | 42 | 243 | 8.7 | 12.2 | 0.00 | 0.00 | 0.00 | 96 | 813.8 |
| 20260506182220 | 42 | 251 | 10.4 | 12.2 | 0.00 | 0.00 | 0.00 | 96 | 813.8 |
| 20260506182109 | 42 | 245 | 8.7 | 10.4 | 0.00 | 0.00 | 0.00 | 96 | 813.8 |
| 20260506181849 | 42 | 241 | 8.7 | 11.3 | 0.00 | 0.00 | 0.00 | 96 | 813.8 |
| 20260506181739 | 42 | 238 | 9.6 | 11.3 | 0.00 | 0.00 | 0.00 | 96 | 813.8 |
| 20260506181629 | 43 | 244 | 10.4 | 13.0 | 0.00 | 0.00 | 0.00 | 96 | 813.7 |
| 20260506181150 | 43 | 251 | 10.4 | 13.0 | 0.00 | 0.00 | 0.00 | 96 | 813.8 |
| 20260506181039 | 43 | 246 | 9.6 | 12.2 | 0.00 | 0.00 | 0.00 | 96 | 813.8 |
| 20260506180930 | 43 | 241 | 9.6 | 12.2 | 0.00 | 0.00 | 0.00 | 95 | 813.8 |
| 20260506180819 | 43 | 243 | 9.6 | 12.2 | 0.00 | 0.00 | 0.00 | 95 | 813.7 |
| 20260506180709 | 43 | 243 | 9.6 | 13.0 | 0.00 | 0.00 | 0.00 | 95 | 813.7 |
| 20260506180559 | 43 | 244 | 9.6 | 13.0 | 0.00 | 0.00 | 0.00 | 95 | 813.7 |
| 20260506180450 | 43 | 248 | 10.4 | 13.0 | 0.00 | 0.00 | 0.00 | 95 | 813.7 |
| 20260506180339 | 43 | 247 | 9.6 | 13.0 | 0.00 | 0.00 | 0.00 | 95 | 813.7 |
| 20260506180229 | 43 | 246 | 9.6 | 13.0 | 0.00 | 0.00 | 0.00 | 95 | 813.7 |
| 20260506180009 | 43 | 244 | 9.6 | 13.0 | 0.00 | 0.00 | 0.00 | 95 | 813.7 |
| 20260506175859 | 43 | 240 | 8.7 | 11.3 | 0.00 | 0.00 | 0.00 | 95 | 813.7 |
| 20260506175749 | 43 | 248 | 9.6 | 13.0 | 0.00 | 0.00 | 0.00 | 95 | 813.7 |
| 20260506175639 | 43 | 238 | 8.7 | 12.2 | 0.00 | 0.00 | 0.00 | 95 | 813.7 |
| 20260506175530 | 43 | 243 | 8.7 | 12.2 | 0.00 | 0.00 | 0.00 | 94 | 813.5 |
| 20260506175419 | 43 | 242 | 8.7 | 11.3 | 0.00 | 0.00 | 0.00 | 94 | 813.5 |
| 20260506175309 | 43 | 240 | 8.7 | 11.3 | 0.00 | 0.00 | 0.00 | 94 | 813.5 |
| 20260506175200 | 43 | 249 | 9.6 | 13.0 | 0.00 | 0.00 | 0.00 | 94 | 813.5 |
| 20260506175049 | 43 | 242 | 9.6 | 13.9 | 0.00 | 0.00 | 0.00 | 94 | 813.4 |
| 20260506174829 | 43 | 239 | 8.7 | 11.3 | 0.00 | 0.00 | 0.00 | 94 | 813.5 |
| 20260506174719 | 43 | 242 | 8.7 | 13.0 | 0.00 | 0.00 | 0.00 | 93 | 813.4 |
| 20260506174459 | 43 | 245 | 8.7 | 12.2 | 0.00 | 0.00 | 0.00 | 92 | 813.4 |
| 20260506174349 | 43 | 242 | 8.7 | 12.2 | 0.00 | 0.00 | 0.00 | 92 | 813.4 |
| 20260506174239 | 43 | 244 | 7.8 | 12.2 | 0.00 | 0.00 | 0.00 | 92 | 813.5 |
| 20260506174129 | 44 | 239 | 8.7 | 12.2 | 0.00 | 0.00 | 0.00 | 92 | 813.5 |
| 20260506174019 | 44 | 248 | 7.8 | 11.3 | 0.00 | 0.00 | 0.00 | 91 | 813.4 |
| 20260506173909 | 44 | 243 | 7.8 | 11.3 | 0.00 | 0.00 | 0.00 | 91 | 813.4 |
| 20260506173759 | 44 | 244 | 8.7 | 12.2 | 0.00 | 0.00 | 0.00 | 91 | 813.4 |
| 20260506173649 | 44 | 246 | 8.7 | 13.0 | 0.00 | 0.00 | 0.00 | 91 | 813.4 |
| 20260506173430 | 44 | 245 | 8.7 | 12.2 | 0.00 | 0.00 | 0.00 | 91 | 813.4 |
| 20260506173209 | 44 | 243 | 8.7 | 13.0 | 0.00 | 0.00 | 0.00 | 91 | 813.5 |
| 20260506173059 | 44 | 240 | 8.7 | 13.0 | 0.00 | 0.00 | 0.00 | 90 | 813.4 |
| 20260506172839 | 44 | 246 | 8.7 | 13.9 | 0.00 | 0.00 | 0.00 | 90 | 813.4 |
| 20260506172730 | 44 | 243 | 9.6 | 13.0 | 0.00 | 0.00 | 0.00 | 90 | 813.4 |
| 20260506172619 | 44 | 245 | 10.4 | 14.8 | 0.00 | 0.00 | 0.00 | 90 | 813.4 |
| 20260506172359 | 44 | 236 | 8.7 | 13.0 | 0.00 | 0.00 | 0.00 | 89 | 813.4 |
| 20260506172249 | 44 | 242 | 8.7 | 13.0 | 0.00 | 0.00 | 0.00 | 89 | 813.4 |
| 20260506172140 | 44 | 242 | 8.7 | 11.3 | 0.00 | 0.00 | 0.00 | 89 | 813.4 |
| 20260506172029 | 44 | 243 | 9.6 | 13.9 | 0.00 | 0.00 | 0.00 | 89 | 813.4 |
| 20260506171659 | 44 | 239 | 8.7 | 13.0 | 0.00 | 0.00 | 0.00 | 89 | 813.4 |
| 20260506171549 | 45 | 236 | 8.7 | 12.2 | 0.00 | 0.00 | 0.00 | 89 | 813.4 |
| 20260506171439 | 45 | 241 | 8.7 | 13.0 | 0.00 | 0.00 | 0.00 | 88 | 813.4 |
| 20260506171329 | 45 | 238 | 8.7 | 13.0 | 0.00 | 0.00 | 0.00 | 88 | 813.4 |
| 20260506171109 | 45 | 238 | 8.7 | 12.2 | 0.00 | 0.00 | 0.00 | 87 | 813.4 |
| 20260506170849 | 45 | 239 | 8.7 | 12.2 | 0.00 | 0.00 | 0.00 | 87 | 813.4 |
| 20260506170632 | 45 | 246 | 8.7 | 13.0 | 0.00 | 0.00 | 0.00 | 87 | 813.4 |
| 20260506170519 | 45 | 245 | 8.7 | 12.2 | 0.00 | 0.00 | 0.00 | 87 | 813.4 |
| 20260506170409 | 45 | 242 | 7.8 | 14.8 | 0.00 | 0.00 | 0.00 | 86 | 813.4 |
| 20260506170259 | 45 | 244 | 9.6 | 13.0 | 0.00 | 0.00 | 0.00 | 86 | 813.4 |
| 20260506170149 | 45 | 242 | 10.4 | 14.8 | 0.00 | 0.00 | 0.00 | 86 | 813.4 |
| 20260506170039 | 45 | 239 | 8.7 | 12.2 | 0.00 | 0.00 | 0.00 | 86 | 813.4 |
| 20260506165929 | 45 | 239 | 8.7 | 13.0 | 0.00 | 0.00 | 0.00 | 86 | 813.4 |
| 20260506165819 | 45 | 241 | 8.7 | 12.2 | 0.00 | 0.00 | 0.00 | 86 | 813.4 |
| 20260506165709 | 45 | 243 | 9.6 | 13.0 | 0.00 | 0.00 | 0.00 | 86 | 813.4 |
| 20260506165559 | 46 | 243 | 8.7 | 13.0 | 0.00 | 0.00 | 0.00 | 85 | 813.4 |
| 20260506165449 | 46 | 240 | 9.6 | 13.9 | 0.00 | 0.00 | 0.00 | 85 | 813.4 |
| 20260506165340 | 46 | 246 | 8.7 | 12.2 | 0.00 | 0.00 | 0.00 | 85 | 813.4 |
| 20260506165229 | 46 | 243 | 8.7 | 11.3 | 0.00 | 0.00 | 0.00 | 84 | 813.4 |
| 20260506165009 | 46 | 239 | 8.7 | 11.3 | 0.00 | 0.00 | 0.00 | 83 | 813.4 |
| 20260506164859 | 46 | 244 | 8.7 | 13.0 | 0.00 | 0.00 | 0.00 | 83 | 813.4 |
| 20260506164749 | 46 | 240 | 7.8 | 12.2 | 0.00 | 0.00 | 0.00 | 83 | 813.4 |
| 20260506164639 | 46 | 245 | 7.8 | 11.3 | 0.00 | 0.00 | 0.00 | 83 | 813.4 |
| 20260506164529 | 46 | 245 | 9.6 | 14.8 | 0.00 | 0.00 | 0.00 | 83 | 813.4 |
| 20260506164419 | 46 | 246 | 10.4 | 14.8 | 0.00 | 0.00 | 0.00 | 83 | 813.4 |
| 20260506164309 | 46 | 253 | 8.7 | 12.2 | 0.00 | 0.00 | 0.00 | 83 | 813.4 |
| 20260506164159 | 46 | 251 | 8.7 | 12.2 | 0.00 | 0.00 | 0.00 | 83 | 813.4 |
| 20260506164049 | 46 | 247 | 8.7 | 12.2 | 0.00 | 0.00 | 0.00 | 83 | 813.5 |
| 20260506163939 | 46 | 251 | 8.7 | 11.3 | 0.00 | 0.00 | 0.00 | 82 | 813.4 |
| 20260506163829 | 46 | 245 | 7.0 | 13.0 | 0.00 | 0.00 | 0.00 | 83 | 813.5 |
| 20260506163719 | 46 | 243 | 8.7 | 11.3 | 0.00 | 0.00 | 0.00 | 82 | 813.4 |
| 20260506163609 | 46 | 246 | 8.7 | 13.9 | 0.00 | 0.00 | 0.00 | 82 | 813.4 |
| 20260506163459 | 46 | 238 | 8.7 | 13.9 | 0.00 | 0.00 | 0.00 | 82 | 813.5 |
| 20260506163349 | 46 | 241 | 7.8 | 10.4 | 0.00 | 0.00 | 0.00 | 81 | 813.4 |
| 20260506163240 | 46 | 244 | 7.8 | 10.4 | 0.00 | 0.00 | 0.00 | 81 | 813.5 |
| 20260506163129 | 46 | 240 | 7.8 | 12.2 | 0.00 | 0.00 | 0.00 | 82 | 813.4 |
| 20260506163019 | 46 | 248 | 7.8 | 12.2 | 0.00 | 0.00 | 0.00 | 82 | 813.4 |
| 20260506162909 | 46 | 236 | 7.8 | 11.3 | 0.00 | 0.00 | 0.00 | 82 | 813.4 |
| 20260506162800 | 46 | 249 | 8.7 | 12.2 | 0.00 | 0.00 | 0.00 | 82 | 813.4 |
| 20260506162649 | 46 | 240 | 7.0 | 10.4 | 0.00 | 0.00 | 0.00 | 82 | 813.4 |
| 20260506162539 | 46 | 240 | 7.0 | 9.6 | 0.00 | 0.00 | 0.00 | 82 | 813.5 |
| 20260506162429 | 46 | 237 | 7.8 | 11.3 | 0.00 | 0.00 | 0.00 | 80 | 813.4 |
| 20260506162059 | 46 | 249 | 7.0 | 10.4 | 0.00 | 0.00 | 0.00 | 79 | 813.5 |
| 20260506161949 | 46 | 242 | 8.7 | 11.3 | 0.00 | 0.00 | 0.00 | 79 | 813.4 |
| 20260506161839 | 46 | 249 | 8.7 | 11.3 | 0.00 | 0.00 | 0.00 | 78 | 813.4 |
| 20260506161729 | 47 | 249 | 7.8 | 11.3 | 0.00 | 0.00 | 0.00 | 79 | 813.5 |
| 20260506161619 | 47 | 250 | 8.7 | 12.2 | 0.00 | 0.00 | 0.00 | 78 | 813.5 |
| 20260506161510 | 47 | 242 | 7.0 | 9.6 | 0.00 | 0.00 | 0.00 | 78 | 813.5 |
| 20260506161140 | 47 | 251 | 8.7 | 13.0 | 0.00 | 0.00 | 0.00 | 76 | 813.4 |
| 20260506161029 | 47 | 242 | 8.7 | 13.0 | 0.00 | 0.00 | 0.00 | 76 | 813.5 |
| 20260506160919 | 47 | 246 | 7.8 | 11.3 | 0.00 | 0.00 | 0.00 | 76 | 813.4 |
| 20260506160809 | 48 | 245 | 8.7 | 12.2 | 0.00 | 0.00 | 0.00 | 75 | 813.4 |
| 20260506160659 | 48 | 247 | 7.0 | 9.6 | 0.00 | 0.00 | 0.00 | 74 | 813.4 |
| 20260506160549 | 48 | 248 | 6.1 | 9.6 | 0.00 | 0.00 | 0.00 | 73 | 813.4 |
| 20260506160329 | 48 | 252 | 7.0 | 9.6 | 0.00 | 0.00 | 0.00 | 72 | 813.5 |
| 20260506160219 | 48 | 249 | 7.8 | 12.2 | 0.00 | 0.00 | 0.00 | 72 | 813.5 |
| 20260506160109 | 48 | 250 | 7.0 | 10.4 | 0.00 | 0.00 | 0.00 | 73 | 813.5 |
| 20260506155959 | 48 | 247 | 7.8 | 12.2 | 0.00 | 0.00 | 0.00 | 71 | 813.5 |
| 20260506155849 | 48 | 245 | 7.8 | 11.3 | 0.00 | 0.00 | 0.00 | 71 | 813.4 |
| 20260506155739 | 48 | 257 | 7.8 | 13.0 | 0.00 | 0.00 | 0.00 | 71 | 813.5 |
| 20260506155629 | 48 | 256 | 8.7 | 13.0 | 0.00 | 0.00 | 0.00 | 70 | 813.5 |
| 20260506155519 | 48 | 247 | 7.8 | 12.2 | 0.00 | 0.00 | 0.00 | 70 | 813.5 |
| 20260506155409 | 48 | 249 | 8.7 | 13.0 | 0.00 | 0.00 | 0.00 | 71 | 813.4 |
| 20260506155259 | 48 | 246 | 7.8 | 11.3 | 0.00 | 0.00 | 0.00 | 70 | 813.5 |
| 20260506155149 | 48 | 246 | 7.8 | 11.3 | 0.00 | 0.00 | 0.00 | 69 | 813.4 |
| 20260506155039 | 49 | 243 | 7.0 | 11.3 | 0.00 | 0.00 | 0.00 | 68 | 813.5 |
| 20260506154929 | 49 | 251 | 9.6 | 13.0 | 0.00 | 0.00 | 0.00 | 68 | 813.5 |
| 20260506154819 | 49 | 253 | 8.7 | 13.0 | 0.00 | 0.00 | 0.00 | 68 | 813.4 |
| 20260506154709 | 49 | 250 | 9.6 | 13.9 | 0.00 | 0.00 | 0.00 | 68 | 813.4 |
| 20260506154559 | 49 | 249 | 8.7 | 14.8 | 0.00 | 0.00 | 0.00 | 67 | 813.5 |
| 20260506154339 | 49 | 240 | 7.8 | 13.0 | 0.00 | 0.00 | 0.00 | 64 | 813.5 |
| 20260506154229 | 50 | 241 | 7.8 | 11.3 | 0.00 | 0.00 | 0.00 | 64 | 813.7 |
| 20260506154119 | 50 | 246 | 8.7 | 12.2 | 0.00 | 0.00 | 0.00 | 64 | 813.7 |
| 20260506153859 | 50 | 251 | 8.7 | 13.9 | 0.00 | 0.00 | 0.00 | 63 | 813.7 |
| 20260506153749 | 50 | 248 | 8.7 | 13.9 | 0.00 | 0.00 | 0.00 | 64 | 813.5 |
| 20260506153639 | 50 | 245 | 8.7 | 13.9 | 0.00 | 0.00 | 0.00 | 64 | 813.7 |
| 20260506153419 | 50 | 245 | 9.6 | 13.0 | 0.00 | 0.00 | 0.00 | 63 | 813.5 |
| 20260506153202 | 50 | 243 | 8.7 | 13.0 | 0.00 | 0.00 | 0.00 | 61 | 813.5 |
| 20260506153049 | 50 | 249 | 7.8 | 12.2 | 0.00 | 0.00 | 0.00 | 62 | 813.5 |
| 20260506152939 | 50 | 247 | 8.7 | 12.2 | 0.00 | 0.00 | 0.00 | 60 | 813.7 |
| 20260506152829 | 50 | 246 | 8.7 | 12.2 | 0.00 | 0.00 | 0.00 | 62 | 813.7 |
| 20260506152719 | 51 | 252 | 10.4 | 13.9 | 0.00 | 0.00 | 0.00 | 63 | 813.7 |
| 20260506152609 | 50 | 253 | 8.7 | 14.8 | 0.00 | 0.00 | 0.00 | 63 | 813.7 |
| 20260506152349 | 51 | 252 | 11.3 | 15.6 | 0.00 | 0.00 | 0.00 | 59 | 813.7 |
| 20260506152130 | 51 | 248 | 7.8 | 11.3 | 0.00 | 0.00 | 0.00 | 62 | 813.8 |
| 20260506152019 | 51 | 245 | 7.8 | 13.9 | 0.00 | 0.00 | 0.00 | 63 | 813.8 |
| 20260506151759 | 50 | 253 | 8.7 | 13.9 | 0.00 | 0.00 | 0.00 | 64 | 813.8 |
| 20260506151649 | 50 | 242 | 7.8 | 13.0 | 0.00 | 0.00 | 0.00 | 64 | 813.8 |
| 20260506151539 | 51 | 242 | 7.8 | 12.2 | 0.00 | 0.00 | 0.00 | 63 | 813.8 |
| 20260506151429 | 51 | 254 | 9.6 | 13.9 | 0.00 | 0.00 | 0.00 | 66 | 813.8 |
| 20260506151210 | 50 | 263 | 10.4 | 13.9 | 0.00 | 0.00 | 0.00 | 68 | 813.8 |
| 20260506151059 | 50 | 249 | 9.6 | 13.9 | 0.00 | 0.00 | 0.00 | 68 | 813.8 |
| 20260506150949 | 50 | 250 | 8.7 | 14.8 | 0.00 | 0.00 | 0.00 | 68 | 813.8 |
| 20260506150839 | 50 | 257 | 7.8 | 13.0 | 0.00 | 0.00 | 0.00 | 68 | 813.8 |
| 20260506150729 | 50 | 258 | 10.4 | 13.9 | 0.00 | 0.00 | 0.00 | 67 | 813.8 |
| 20260506150619 | 50 | 244 | 7.8 | 12.2 | 0.00 | 0.00 | 0.00 | 72 | 813.8 |
| 20260506150359 | 50 | 248 | 7.0 | 13.0 | 0.00 | 0.00 | 0.00 | 69 | 813.8 |
| 20260506150249 | 50 | 235 | 8.7 | 12.2 | 0.00 | 0.00 | 0.00 | 69 | 813.8 |
| 20260506150139 | 50 | 247 | 7.8 | 14.8 | 0.00 | 0.00 | 0.00 | 71 | 813.8 |
| 20260506150029 | 50 | 246 | 8.7 | 13.9 | 0.00 | 0.00 | 0.00 | 71 | 813.8 |
| 20260506145919 | 50 | 233 | 9.6 | 12.2 | 0.00 | 0.00 | 0.00 | 70 | 813.8 |
| 20260506145809 | 50 | 248 | 7.8 | 16.5 | 0.00 | 0.00 | 0.00 | 72 | 813.8 |
| 20260506145700 | 50 | 249 | 8.7 | 13.0 | 0.00 | 0.00 | 0.00 | 73 | 813.8 |
| 20260506145549 | 50 | 233 | 8.7 | 12.2 | 0.00 | 0.00 | 0.00 | 70 | 813.8 |
| 20260506145447 | 50 | 240 | 8.7 | 15.6 | 0.00 | 0.00 | 0.00 | 71 | 813.8 |
| 20260506145329 | 51 | 237 | 8.7 | 13.0 | 0.00 | 0.00 | 0.00 | 70 | 813.8 |
| 20260506145222 | 51 | 240 | 8.7 | 13.0 | 0.00 | 0.00 | 0.00 | 70 | 813.7 |
| 20260506145109 | 51 | 266 | 8.7 | 15.6 | 0.00 | 0.00 | 0.00 | 70 | 813.8 |
| 20260506144959 | 51 | 255 | 8.7 | 13.9 | 0.00 | 0.00 | 0.00 | 71 | 813.8 |
| 20260506144740 | 51 | 250 | 8.7 | 13.0 | 0.00 | 0.00 | 0.00 | 72 | 813.8 |
| 20260506144629 | 50 | 252 | 8.7 | 12.2 | 0.00 | 0.00 | 0.00 | 72 | 813.8 |
| 20260506144519 | 50 | 253 | 7.8 | 15.6 | 0.00 | 0.00 | 0.00 | 72 | 813.8 |
| 20260506144409 | 50 | 253 | 8.7 | 14.8 | 0.00 | 0.00 | 0.00 | 70 | 813.8 |
| 20260506144259 | 51 | 241 | 10.4 | 15.6 | 0.00 | 0.00 | 0.00 | 70 | 813.7 |
| 20260506144149 | 51 | 247 | 9.6 | 15.6 | 0.00 | 0.00 | 0.00 | 71 | 813.8 |
| 20260506144039 | 50 | 252 | 9.6 | 14.8 | 0.00 | 0.00 | 0.00 | 70 | 813.7 |
| 20260506143929 | 51 | 255 | 8.7 | 13.9 | 0.00 | 0.00 | 0.00 | 69 | 813.8 |
| 20260506143822 | 51 | 247 | 9.6 | 14.8 | 0.00 | 0.00 | 0.00 | 69 | 813.7 |
| 20260506143709 | 51 | 253 | 9.6 | 15.6 | 0.00 | 0.00 | 0.00 | 70 | 813.8 |
| 20260506143559 | 51 | 241 | 8.7 | 13.0 | 0.00 | 0.00 | 0.00 | 69 | 813.8 |
| 20260506143339 | 51 | 255 | 8.7 | 13.9 | 0.00 | 0.00 | 0.00 | 70 | 813.8 |
| 20260506143229 | 51 | 247 | 8.7 | 14.8 | 0.00 | 0.00 | 0.00 | 71 | 813.8 |
| 20260506143119 | 51 | 243 | 8.7 | 12.2 | 0.00 | 0.00 | 0.00 | 70 | 813.8 |
| 20260506142859 | 50 | 256 | 8.7 | 13.0 | 0.00 | 0.00 | 0.00 | 72 | 813.8 |
| 20260506142530 | 50 | 251 | 8.7 | 14.8 | 0.00 | 0.00 | 0.00 | 74 | 813.8 |
| 20260506142419 | 50 | 256 | 8.7 | 12.2 | 0.00 | 0.00 | 0.00 | 72 | 813.8 |
| 20260506142049 | 51 | 255 | 8.7 | 14.8 | 0.00 | 0.00 | 0.00 | 72 | 813.8 |
| 20260506141939 | 51 | 242 | 7.0 | 11.3 | 0.00 | 0.00 | 0.00 | 71 | 813.8 |
| 20260506141830 | 50 | 249 | 7.8 | 12.2 | 0.00 | 0.00 | 0.00 | 70 | 813.8 |
| 20260506141719 | 50 | 251 | 7.0 | 11.3 | 0.00 | 0.00 | 0.00 | 69 | 813.8 |
| 20260506141609 | 50 | 243 | 8.7 | 13.9 | 0.00 | 0.00 | 0.00 | 69 | 813.7 |
| 20260506141459 | 50 | 243 | 9.6 | 12.2 | 0.00 | 0.00 | 0.00 | 68 | 813.7 |
| 20260506141240 | 50 | 249 | 8.7 | 12.2 | 0.00 | 0.00 | 0.00 | 68 | 813.8 |
| 20260506141131 | 50 | 237 | 8.7 | 13.9 | 0.00 | 0.00 | 0.00 | 67 | 813.7 |
| 20260506141019 | 50 | 242 | 7.8 | 13.0 | 0.00 | 0.00 | 0.00 | 69 | 813.7 |
| 20260506140909 | 50 | 250 | 7.0 | 12.2 | 0.00 | 0.00 | 0.00 | 70 | 813.7 |
| 20260506140802 | 50 | 252 | 10.4 | 18.2 | 0.00 | 0.00 | 0.00 | 70 | 813.5 |
| 20260506140649 | 50 | 252 | 8.7 | 13.0 | 0.00 | 0.00 | 0.00 | 71 | 813.8 |
| 20260506140432 | 50 | 227 | 10.4 | 14.8 | 0.00 | 0.00 | 0.00 | 71 | 813.8 |
| 20260506140319 | 50 | 238 | 8.7 | 13.0 | 0.00 | 0.00 | 0.00 | 68 | 813.7 |
| 20260506140209 | 50 | 242 | 10.4 | 16.5 | 0.00 | 0.00 | 0.00 | 67 | 813.7 |
| 20260506140104 | 50 | 232 | 8.7 | 13.9 | 0.00 | 0.00 | 0.00 | 70 | 813.7 |
| 20260506135843 | 49 | 258 | 6.1 | 13.0 | 0.00 | 0.00 | 0.00 | 75 | 813.7 |
| 20260506135729 | 49 | 253 | 8.7 | 13.0 | 0.00 | 0.00 | 0.00 | 72 | 813.7 |
| 20260506135622 | 49 | 245 | 7.8 | 11.3 | 0.00 | 0.00 | 0.00 | 75 | 813.8 |
| 20260506135509 | 49 | 230 | 7.0 | 11.3 | 0.00 | 0.00 | 0.00 | 70 | 813.8 |
| 20260506135249 | 49 | 215 | 8.7 | 12.2 | 0.00 | 0.00 | 0.00 | 69 | 813.7 |
| 20260506135029 | 49 | 231 | 7.8 | 13.0 | 0.00 | 0.00 | 0.00 | 74 | 813.8 |
| 20260506134809 | 48 | 236 | 7.0 | 10.4 | 0.00 | 0.00 | 0.00 | 76 | 813.8 |
| 20260506134439 | 47 | 239 | 7.0 | 10.4 | 0.00 | 0.00 | 0.00 | 76 | 813.8 |
| 20260506134329 | 47 | 235 | 7.8 | 10.4 | 0.00 | 0.00 | 0.00 | 75 | 813.8 |
| 20260506134222 | 47 | 235 | 8.7 | 13.0 | 0.00 | 0.00 | 0.00 | 75 | 813.7 |
| 20260506134109 | 47 | 251 | 7.0 | 10.4 | 0.00 | 0.00 | 0.00 | 77 | 813.8 |
| 20260506133629 | 47 | 252 | 6.1 | 9.6 | 0.00 | 0.00 | 0.00 | 73 | 813.8 |
| 20260506133519 | 47 | 239 | 7.0 | 9.6 | 0.00 | 0.00 | 0.00 | 75 | 813.8 |
| 20260506133259 | 47 | 245 | 7.0 | 10.4 | 0.00 | 0.00 | 0.00 | 74 | 813.8 |
| 20260506133149 | 47 | 244 | 7.8 | 11.3 | 0.00 | 0.00 | 0.00 | 74 | 813.8 |
| 20260506133039 | 47 | 246 | 8.7 | 13.0 | 0.00 | 0.00 | 0.00 | 73 | 813.8 |
| 20260506132929 | 47 | 237 | 7.8 | 13.0 | 0.00 | 0.00 | 0.00 | 74 | 813.8 |
| 20260506132709 | 47 | 240 | 7.0 | 9.6 | 0.00 | 0.00 | 0.00 | 74 | 813.8 |
| 20260506132449 | 47 | 244 | 7.8 | 13.0 | 0.00 | 0.00 | 0.00 | 74 | 813.8 |
| 20260506132339 | 47 | 252 | 8.7 | 12.2 | 0.00 | 0.00 | 0.00 | 73 | 813.8 |
| 20260506132229 | 46 | 245 | 9.6 | 14.8 | 0.00 | 0.00 | 0.00 | 75 | 813.8 |
| 20260506132119 | 46 | 240 | 9.6 | 13.0 | 0.00 | 0.00 | 0.00 | 75 | 813.8 |
| 20260506132010 | 46 | 244 | 8.7 | 12.2 | 0.00 | 0.00 | 0.00 | 75 | 813.8 |
| 20260506131859 | 46 | 233 | 7.8 | 13.9 | 0.00 | 0.00 | 0.00 | 75 | 813.9 |
| 20260506131750 | 46 | 228 | 7.0 | 11.3 | 0.00 | 0.00 | 0.00 | 75 | 813.9 |
| 20260506131652 | 46 | 232 | 7.0 | 10.4 | 0.00 | 0.00 | 0.00 | 75 | 813.9 |
| 20260506131537 | 46 | 236 | 7.8 | 12.2 | 0.00 | 0.00 | 0.00 | 75 | 813.8 |
| 20260506131310 | 46 | 217 | 6.1 | 10.4 | 0.00 | 0.00 | 0.00 | 69 | 813.8 |
| 20260506131200 | 46 | 225 | 10.4 | 16.5 | 0.00 | 0.00 | 0.00 | 72 | 813.8 |
| 20260506130831 | 46 | 225 | 7.8 | 12.2 | 0.00 | 0.00 | 0.00 | 76 | 813.8 |
| 20260506130720 | 46 | 238 | 8.7 | 13.9 | 0.00 | 0.00 | 0.00 | 75 | 813.8 |
| 20260506130613 | 46 | 238 | 8.7 | 13.9 | 0.00 | 0.00 | 0.00 | 75 | 813.7 |
| 20260506130459 | 46 | 236 | 8.7 | 18.2 | 0.00 | 0.00 | 0.00 | 74 | 813.8 |
| 20260506130353 | 46 | 221 | 8.7 | 13.9 | 0.00 | 0.00 | 0.00 | 76 | 813.8 |
| 20260506130133 | 46 | 235 | 7.8 | 11.3 | 0.00 | 0.00 | 0.00 | 75 | 813.9 |
| 20260506130019 | 46 | 235 | 8.7 | 12.2 | 0.00 | 0.00 | 0.00 | 75 | 813.9 |
| 20260506125913 | 46 | 239 | 7.8 | 13.0 | 0.00 | 0.00 | 0.00 | 74 | 813.8 |
| 20260506125800 | 46 | 240 | 8.7 | 13.9 | 0.00 | 0.00 | 0.00 | 74 | 813.8 |
| 20260506125649 | 46 | 239 | 8.7 | 13.0 | 0.00 | 0.00 | 0.00 | 76 | 813.9 |
| 20260506125539 | 46 | 228 | 8.7 | 13.0 | 0.00 | 0.00 | 0.00 | 75 | 813.8 |
| 20260506125430 | 46 | 230 | 8.7 | 13.0 | 0.00 | 0.00 | 0.00 | 74 | 813.9 |
| 20260506125320 | 46 | 236 | 10.4 | 13.9 | 0.00 | 0.00 | 0.00 | 75 | 813.9 |
| 20260506125209 | 46 | 246 | 9.6 | 14.8 | 0.00 | 0.00 | 0.00 | 75 | 813.9 |
| 20260506124949 | 46 | 214 | 10.4 | 15.6 | 0.00 | 0.00 | 0.00 | 74 | 814.1 |
| 20260506124839 | 46 | 231 | 8.7 | 11.3 | 0.00 | 0.00 | 0.00 | 74 | 814.1 |
| 20260506124731 | 46 | 220 | 7.8 | 11.3 | 0.00 | 0.00 | 0.00 | 73 | 814.2 |
| 20260506124619 | 46 | 228 | 8.7 | 13.9 | 0.00 | 0.00 | 0.00 | 74 | 814.2 |
| 20260506124359 | 46 | 223 | 7.8 | 12.2 | 0.00 | 0.00 | 0.00 | 74 | 814.2 |
| 20260506124030 | 46 | 217 | 9.6 | 20.9 | 0.00 | 0.00 | 0.00 | 74 | 814.2 |
| 20260506123700 | 47 | 213 | 6.1 | 10.4 | 0.00 | 0.00 | 0.00 | 71 | 814.2 |
| 20260506123444 | 47 | 227 | 7.8 | 12.2 | 0.00 | 0.00 | 0.00 | 71 | 814.2 |
| 20260506123219 | 47 | 234 | 5.2 | 8.7 | 0.00 | 0.00 | 0.00 | 70 | 814.2 |
| 20260506123004 | 47 | 216 | 11.3 | 13.9 | 0.00 | 0.00 | 0.00 | 69 | 814.2 |
| 20260506122850 | 47 | 232 | 7.0 | 13.0 | 0.00 | 0.00 | 0.00 | 72 | 814.2 |
| 20260506122740 | 47 | 238 | 5.2 | 10.4 | 0.00 | 0.00 | 0.00 | 74 | 814.2 |
| 20260506122629 | 48 | 246 | 4.3 | 7.0 | 0.00 | 0.00 | 0.00 | 71 | 814.2 |
| 20260506122523 | 48 | 221 | 3.5 | 6.1 | 0.00 | 0.00 | 0.00 | 70 | 814.2 |
| 20260506122410 | 48 | 245 | 2.6 | 7.0 | 0.00 | 0.00 | 0.00 | 68 | 814.2 |
| 20260506122305 | 48 | 251 | 8.7 | 13.0 | 0.00 | 0.00 | 0.00 | 67 | 814.2 |
| 20260506122149 | 48 | 216 | 8.7 | 12.2 | 0.00 | 0.00 | 0.00 | 65 | 814.2 |
| 20260506121822 | 49 | 228 | 6.1 | 10.4 | 0.00 | 0.00 | 0.00 | 65 | 814.2 |
| 20260506121559 | 49 | 230 | 7.0 | 11.3 | 0.00 | 0.00 | 0.00 | 63 | 814.2 |
| 20260506121452 | 49 | 230 | 7.0 | 12.2 | 0.00 | 0.00 | 0.00 | 63 | 814.2 |
| 20260506121231 | 50 | 241 | 4.3 | 10.4 | 0.00 | 0.00 | 0.00 | 62 | 814.2 |
| 20260506121009 | 51 | 238 | 4.3 | 8.7 | 0.00 | 0.00 | 0.00 | 64 | 814.2 |
| 20260506120529 | 51 | 241 | 8.7 | 13.9 | 0.00 | 0.00 | 0.00 | 62 | 813.9 |
| 20260506120422 | 52 | 205 | 5.2 | 10.4 | 0.00 | 0.00 | 0.00 | 62 | 814.1 |
| 20260506120311 | 52 | 240 | 5.2 | 8.7 | 0.00 | 0.00 | 0.00 | 62 | 814.1 |
| 20260506120052 | 52 | 234 | 4.3 | 10.4 | 0.00 | 0.00 | 0.00 | 61 | 813.9 |
| 20260506115941 | 53 | 236 | 3.5 | 7.0 | 0.00 | 0.00 | 0.00 | 60 | 813.9 |
| 20260506115829 | 54 | 251 | 8.7 | 16.5 | 0.00 | 0.00 | 0.00 | 58 | 813.9 |
| 20260506115719 | 54 | 233 | 5.2 | 8.7 | 0.00 | 0.00 | 0.00 | 58 | 814.1 |
| 20260506115612 | 55 | 230 | 5.2 | 11.3 | 0.00 | 0.00 | 0.00 | 57 | 814.1 |
| 20260506115459 | 55 | 227 | 7.0 | 13.0 | 0.00 | 0.00 | 0.00 | 57 | 813.8 |
| 20260506115349 | 55 | 247 | 6.1 | 13.0 | 0.00 | 0.00 | 0.00 | 58 | 813.8 |
| 20260506115241 | 54 | 251 | 5.2 | 10.4 | 0.00 | 0.00 | 0.00 | 59 | 814.1 |
| 20260506115134 | 54 | 239 | 7.0 | 13.0 | 0.00 | 0.00 | 0.00 | 60 | 813.9 |
| 20260506115019 | 53 | 238 | 8.7 | 13.0 | 0.00 | 0.00 | 0.00 | 60 | 814.1 |
| 20260506114649 | 53 | 240 | 7.0 | 13.9 | 0.00 | 0.00 | 0.00 | 60 | 814.1 |
| 20260506114539 | 53 | 245 | 4.3 | 8.7 | 0.00 | 0.00 | 0.00 | 61 | 813.9 |
| 20260506114429 | 53 | 251 | 6.1 | 13.0 | 0.00 | 0.00 | 0.00 | 60 | 813.9 |
| 20260506114319 | 53 | 258 | 8.7 | 13.9 | 0.00 | 0.00 | 0.00 | 63 | 814.1 |
| 20260506114209 | 52 | 252 | 7.8 | 17.4 | 0.00 | 0.00 | 0.00 | 64 | 814.1 |
| 20260506113732 | 51 | 228 | 7.0 | 12.2 | 0.00 | 0.00 | 0.00 | 63 | 814.1 |
| 20260506113359 | 52 | 239 | 7.8 | 13.0 | 0.00 | 0.00 | 0.00 | 62 | 814.1 |
| 20260506113249 | 53 | 253 | 8.7 | 13.9 | 0.00 | 0.00 | 0.00 | 60 | 814.1 |
| 20260506113029 | 54 | 270 | 7.0 | 13.9 | 0.00 | 0.00 | 0.00 | 62 | 814.2 |
| 20260506112919 | 54 | 228 | 3.5 | 9.6 | 0.00 | 0.00 | 0.00 | 59 | 814.2 |
| 20260506112549 | 55 | 217 | 6.1 | 8.7 | 0.00 | 0.00 | 0.00 | 59 | 814.2 |
| 20260506112439 | 55 | 243 | 7.0 | 13.0 | 0.00 | 0.00 | 0.00 | 59 | 814.2 |
| 20260506112219 | 55 | 272 | 7.0 | 11.3 | 0.00 | 0.00 | 0.00 | 61 | 814.2 |
| 20260506112109 | 54 | 249 | 5.2 | 10.4 | 0.00 | 0.00 | 0.00 | 62 | 814.2 |
| 20260506111959 | 54 | 267 | 4.3 | 12.2 | 0.00 | 0.00 | 0.00 | 62 | 814.2 |
| 20260506111849 | 54 | 290 | 3.5 | 8.7 | 0.00 | 0.00 | 0.00 | 60 | 814.2 |
| 20260506111739 | 54 | 273 | 6.1 | 10.4 | 0.00 | 0.00 | 0.00 | 62 | 814.2 |
| 20260506111629 | 55 | 247 | 7.0 | 12.2 | 0.00 | 0.00 | 0.00 | 61 | 814.2 |
| 20260506111519 | 55 | 261 | 7.0 | 13.9 | 0.00 | 0.00 | 0.00 | 62 | 814.2 |
| 20260506111409 | 55 | 236 | 6.1 | 12.2 | 0.00 | 0.00 | 0.00 | 59 | 814.2 |
| 20260506111259 | 55 | 243 | 4.3 | 9.6 | 0.00 | 0.00 | 0.00 | 61 | 814.2 |
| 20260506111149 | 55 | 259 | 6.1 | 8.7 | 0.00 | 0.00 | 0.00 | 60 | 814.2 |
| 20260506111039 | 55 | 230 | 4.3 | 11.3 | 0.00 | 0.00 | 0.00 | 61 | 814.2 |
| 20260506110929 | 55 | 233 | 4.3 | 10.4 | 0.00 | 0.00 | 0.00 | 63 | 814.2 |
| 20260506110819 | 55 | 260 | 6.1 | 12.2 | 0.00 | 0.00 | 0.00 | 62 | 814.2 |
| 20260506110709 | 55 | 276 | 7.0 | 10.4 | 0.00 | 0.00 | 0.00 | 59 | 814.2 |
| 20260506110559 | 55 | 266 | 7.0 | 11.3 | 0.00 | 0.00 | 0.00 | 62 | 814.2 |
| 20260506110449 | 55 | 262 | 3.5 | 7.0 | 0.00 | 0.00 | 0.00 | 63 | 814.2 |
| 20260506110339 | 55 | 239 | 6.1 | 11.3 | 0.00 | 0.00 | 0.00 | 62 | 814.2 |
| 20260506110229 | 55 | 256 | 5.2 | 13.0 | 0.00 | 0.00 | 0.00 | 63 | 814.2 |
| 20260506110016 | 55 | 241 | 6.1 | 13.9 | 0.00 | 0.00 | 0.00 | 62 | 814.2 |
| 20260506105858 | 55 | 279 | 6.1 | 13.9 | 0.00 | 0.00 | 0.00 | 62 | 814.2 |
| 20260506105642 | 55 | 254 | 7.0 | 13.0 | 0.00 | 0.00 | 0.00 | 62 | 814.2 |
| 20260506105529 | 55 | 264 | 3.5 | 5.2 | 0.00 | 0.00 | 0.00 | 64 | 814.2 |
| 20260506105418 | 54 | 316 | 4.3 | 8.7 | 0.00 | 0.00 | 0.00 | 65 | 814.2 |
| 20260506105309 | 54 | 62 | 3.5 | 13.0 | 0.00 | 0.00 | 0.00 | 65 | 814.2 |
| 20260506104939 | 54 | 216 | 7.0 | 11.3 | 0.00 | 0.00 | 0.00 | 63 | 814.2 |
| 20260506104719 | 54 | 288 | 4.3 | 7.8 | 0.00 | 0.00 | 0.00 | 66 | 814.2 |
| 20260506104459 | 54 | 253 | 4.3 | 9.6 | 0.00 | 0.00 | 0.00 | 66 | 814.2 |
| 20260506104238 | 54 | 286 | 5.2 | 11.3 | 0.00 | 0.00 | 0.00 | 65 | 814.2 |
| 20260506104018 | 53 | 276 | 3.5 | 8.7 | 0.00 | 0.00 | 0.00 | 72 | 814.2 |
| 20260506103759 | 52 | 320 | 2.6 | 7.0 | 0.00 | 0.00 | 0.00 | 69 | 814.3 |
| 20260506103539 | 51 | 220 | 1.7 | 3.5 | 0.00 | 0.00 | 0.00 | 71 | 814.3 |
| 20260506103428 | 51 | 206 | 2.6 | 6.1 | 0.00 | 0.00 | 0.00 | 71 | 814.2 |
| 20260506103318 | 52 | 230 | 2.6 | 6.1 | 0.00 | 0.00 | 0.00 | 68 | 814.2 |
| 20260506103209 | 52 | 239 | 5.2 | 9.6 | 0.00 | 0.00 | 0.00 | 70 | 814.3 |
| 20260506103102 | 52 | 232 | 3.5 | 7.0 | 0.00 | 0.00 | 0.00 | 70 | 814.3 |
| 20260506102839 | 51 | 277 | 3.5 | 7.0 | 0.00 | 0.00 | 0.00 | 72 | 814.3 |
| 20260506102729 | 51 | 90 | 1.7 | 5.2 | 0.00 | 0.00 | 0.00 | 72 | 814.3 |
| 20260506102618 | 51 | 181 | 0.9 | 3.5 | 0.00 | 0.00 | 0.00 | 72 | 814.3 |
| 20260506102358 | 51 | 272 | 1.7 | 4.3 | 0.00 | 0.00 | 0.00 | 72 | 814.3 |
| 20260506102248 | 51 | 283 | 1.7 | 3.5 | 0.00 | 0.00 | 0.00 | 72 | 814.3 |
| 20260506102028 | 51 | 195 | 1.7 | 3.5 | 0.00 | 0.00 | 0.00 | 72 | 814.3 |
| 20260506101918 | 51 | 195 | 2.6 | 5.2 | 0.00 | 0.00 | 0.00 | 72 | 814.2 |
| 20260506101808 | 51 | 222 | 3.5 | 6.1 | 0.00 | 0.00 | 0.00 | 72 | 814.3 |
| 20260506101658 | 51 | 220 | 3.5 | 5.2 | 0.00 | 0.00 | 0.00 | 72 | 814.3 |
| 20260506101549 | 51 | 258 | 4.3 | 7.0 | 0.00 | 0.00 | 0.00 | 71 | 814.3 |
| 20260506101438 | 51 | 258 | 3.5 | 6.1 | 0.00 | 0.00 | 0.00 | 71 | 814.3 |
| 20260506101329 | 51 | 287 | 2.6 | 5.2 | 0.00 | 0.00 | 0.00 | 72 | 814.3 |
| 20260506101219 | 51 | 138 | 0.9 | 3.5 | 0.00 | 0.00 | 0.00 | 72 | 814.3 |
| 20260506101109 | 51 | 223 | 1.7 | 3.5 | 0.00 | 0.00 | 0.00 | 72 | 814.3 |
| 20260506100958 | 51 | 215 | 1.7 | 4.3 | 0.00 | 0.00 | 0.00 | 71 | 814.3 |
| 20260506100848 | 51 | 197 | 1.7 | 1.7 | 0.00 | 0.00 | 0.00 | 71 | 814.2 |
| 20260506100628 | 51 | 212 | 1.7 | 3.5 | 0.00 | 0.00 | 0.00 | 68 | 814.3 |
| 20260506100519 | 52 | 191 | 2.6 | 3.5 | 0.00 | 0.00 | 0.00 | 69 | 814.3 |
| 20260506100408 | 52 | 204 | 2.6 | 5.2 | 0.00 | 0.00 | 0.00 | 67 | 814.3 |
| 20260506100258 | 52 | 212 | 3.5 | 5.2 | 0.00 | 0.00 | 0.00 | 69 | 814.3 |
| 20260506100150 | 52 | 245 | 3.5 | 5.2 | 0.00 | 0.00 | 0.00 | 70 | 814.3 |
| 20260506095930 | 52 | 267 | 3.5 | 6.1 | 0.00 | 0.00 | 0.00 | 72 | 814.3 |
| 20260506095820 | 51 | 271 | 3.5 | 7.0 | 0.00 | 0.00 | 0.00 | 72 | 814.3 |
| 20260506095708 | 51 | 214 | 4.3 | 7.0 | 0.00 | 0.00 | 0.00 | 72 | 814.3 |
| 20260506095455 | 51 | 215 | 4.3 | 8.7 | 0.00 | 0.00 | 0.00 | 69 | 814.3 |
| 20260506095235 | 51 | 282 | 2.6 | 7.8 | 0.00 | 0.00 | 0.00 | 70 | 814.3 |
| 20260506095119 | 52 | 222 | 2.6 | 6.1 | 0.00 | 0.00 | 0.00 | 69 | 814.3 |
| 20260506095009 | 52 | 241 | 5.2 | 10.4 | 0.00 | 0.00 | 0.00 | 69 | 814.3 |
| 20260506094859 | 53 | 247 | 7.0 | 11.3 | 0.00 | 0.00 | 0.00 | 67 | 814.3 |
| 20260506094749 | 53 | 248 | 6.1 | 9.6 | 0.00 | 0.00 | 0.00 | 68 | 814.3 |
| 20260506094528 | 54 | 216 | 5.2 | 7.8 | 0.00 | 0.00 | 0.00 | 64 | 814.3 |
| 20260506094419 | 55 | 244 | 4.3 | 8.7 | 0.00 | 0.00 | 0.00 | 65 | 814.3 |
| 20260506094308 | 55 | 245 | 3.5 | 7.0 | 0.00 | 0.00 | 0.00 | 65 | 814.3 |
| 20260506094159 | 55 | 270 | 3.5 | 9.6 | 0.00 | 0.00 | 0.00 | 64 | 814.3 |
| 20260506094048 | 55 | 301 | 4.3 | 8.7 | 0.00 | 0.00 | 0.00 | 65 | 814.3 |
| 20260506093938 | 54 | 256 | 3.5 | 6.1 | 0.00 | 0.00 | 0.00 | 68 | 814.3 |
| 20260506093828 | 53 | 298 | 3.5 | 7.8 | 0.00 | 0.00 | 0.00 | 68 | 814.3 |
| 20260506093719 | 53 | 241 | 3.5 | 6.1 | 0.00 | 0.00 | 0.00 | 66 | 814.3 |
| 20260506093609 | 53 | 240 | 1.7 | 5.2 | 0.00 | 0.00 | 0.00 | 63 | 814.3 |
| 20260506093348 | 53 | 245 | 2.6 | 6.1 | 0.00 | 0.00 | 0.00 | 66 | 814.3 |
| 20260506093239 | 53 | 305 | 2.6 | 7.0 | 0.00 | 0.00 | 0.00 | 68 | 814.3 |
| 20260506093128 | 53 | 233 | 2.6 | 11.3 | 0.00 | 0.00 | 0.00 | 66 | 814.3 |
| 20260506093019 | 52 | 174 | 1.7 | 5.2 | 0.00 | 0.00 | 0.00 | 66 | 814.3 |
| 20260506092759 | 51 | 211 | 2.6 | 6.1 | 0.00 | 0.00 | 0.00 | 74 | 814.3 |
| 20260506092648 | 51 | 203 | 2.6 | 5.2 | 0.00 | 0.00 | 0.00 | 74 | 814.5 |
| 20260506092538 | 50 | 229 | 3.5 | 6.1 | 0.00 | 0.00 | 0.00 | 74 | 814.3 |
| 20260506092429 | 49 | 210 | 3.5 | 5.2 | 0.00 | 0.00 | 0.00 | 77 | 814.3 |
| 20260506092319 | 49 | 205 | 3.5 | 5.2 | 0.00 | 0.00 | 0.00 | 76 | 814.3 |
| 20260506092208 | 48 | 186 | 4.3 | 5.2 | 0.00 | 0.00 | 0.00 | 78 | 814.3 |
| 20260506092059 | 48 | 173 | 4.3 | 6.1 | 0.00 | 0.00 | 0.00 | 78 | 814.3 |
| 20260506091838 | 48 | 177 | 4.3 | 4.3 | 0.00 | 0.00 | 0.00 | 76 | 814.5 |
| 20260506091728 | 49 | 185 | 4.3 | 5.2 | 0.00 | 0.00 | 0.00 | 77 | 814.3 |
| 20260506091618 | 49 | 198 | 2.6 | 4.3 | 0.00 | 0.00 | 0.00 | 76 | 814.3 |
| 20260506091508 | 49 | 193 | 2.6 | 4.3 | 0.00 | 0.00 | 0.00 | 76 | 814.3 |
| 20260506091358 | 49 | 214 | 3.5 | 6.1 | 0.00 | 0.00 | 0.00 | 76 | 814.3 |
| 20260506091248 | 49 | 225 | 1.7 | 7.0 | 0.00 | 0.00 | 0.00 | 76 | 814.3 |
| 20260506091029 | 49 | 236 | 4.3 | 6.1 | 0.00 | 0.00 | 0.00 | 75 | 814.3 |
| 20260506090918 | 49 | 243 | 4.3 | 6.1 | 0.00 | 0.00 | 0.00 | 76 | 814.3 |
| 20260506090808 | 49 | 236 | 3.5 | 5.2 | 0.00 | 0.00 | 0.00 | 75 | 814.3 |
| 20260506090658 | 49 | 248 | 3.5 | 5.2 | 0.00 | 0.00 | 0.00 | 75 | 814.3 |
| 20260506090438 | 49 | 267 | 2.6 | 3.5 | 0.00 | 0.00 | 0.00 | 75 | 814.3 |
| 20260506090329 | 49 | 245 | 0.9 | 7.8 | 0.00 | 0.00 | 0.00 | 75 | 814.3 |
| 20260506090108 | 49 | 228 | 1.7 | 3.5 | 0.00 | 0.00 | 0.00 | 75 | 814.2 |
| 20260506085959 | 49 | 225 | 3.5 | 4.3 | 0.00 | 0.00 | 0.00 | 75 | 814.3 |
| 20260506085739 | 49 | 221 | 3.5 | 4.3 | 0.00 | 0.00 | 0.00 | 74 | 814.2 |
| 20260506085628 | 49 | 235 | 3.5 | 5.2 | 0.00 | 0.00 | 0.00 | 74 | 814.2 |
| 20260506085518 | 49 | 224 | 4.3 | 7.0 | 0.00 | 0.00 | 0.00 | 73 | 814.2 |
| 20260506085408 | 50 | 212 | 5.2 | 7.0 | 0.00 | 0.00 | 0.00 | 74 | 814.2 |
| 20260506085258 | 50 | 219 | 4.3 | 7.0 | 0.00 | 0.00 | 0.00 | 74 | 814.3 |
| 20260506085148 | 50 | 248 | 2.6 | 4.3 | 0.00 | 0.00 | 0.00 | 72 | 814.3 |
| 20260506085038 | 50 | 235 | 3.5 | 4.3 | 0.00 | 0.00 | 0.00 | 72 | 814.3 |
| 20260506084928 | 50 | 259 | 2.6 | 5.2 | 0.00 | 0.00 | 0.00 | 72 | 814.3 |
| 20260506084818 | 50 | 256 | 3.5 | 4.3 | 0.00 | 0.00 | 0.00 | 71 | 814.3 |
| 20260506084708 | 51 | 266 | 3.5 | 5.2 | 0.00 | 0.00 | 0.00 | 72 | 814.3 |
| 20260506084559 | 51 | 268 | 2.6 | 4.3 | 0.00 | 0.00 | 0.00 | 70 | 814.3 |
| 20260506084339 | 51 | 280 | 3.5 | 5.2 | 0.00 | 0.00 | 0.00 | 70 | 814.3 |
| 20260506084119 | 51 | 186 | 1.7 | 3.5 | 0.00 | 0.00 | 0.00 | 71 | 814.3 |
| 20260506084008 | 51 | 250 | 1.7 | 3.5 | 0.00 | 0.00 | 0.00 | 69 | 814.3 |
| 20260506083858 | 51 | 209 | 1.7 | 3.5 | 0.00 | 0.00 | 0.00 | 69 | 814.3 |
| 20260506083748 | 51 | 281 | 3.5 | 5.2 | 0.00 | 0.00 | 0.00 | 70 | 814.3 |
| 20260506083638 | 51 | 239 | 2.6 | 5.2 | 0.00 | 0.00 | 0.00 | 68 | 814.2 |
| 20260506083528 | 52 | 273 | 2.6 | 5.2 | 0.00 | 0.00 | 0.00 | 68 | 814.3 |
| 20260506083308 | 52 | 307 | 0.9 | 2.6 | 0.00 | 0.00 | 0.00 | 68 | 814.2 |
| 20260506083158 | 52 | 207 | 2.6 | 4.3 | 0.00 | 0.00 | 0.00 | 68 | 814.2 |
| 20260506083048 | 52 | 280 | 1.7 | 3.5 | 0.00 | 0.00 | 0.00 | 69 | 814.2 |
| 20260506082938 | 52 | 236 | 1.7 | 3.5 | 0.00 | 0.00 | 0.00 | 70 | 814.2 |
| 20260506082718 | 51 | 220 | 2.6 | 6.1 | 0.00 | 0.00 | 0.00 | 72 | 814.2 |
| 20260506082609 | 51 | 333 | 0.9 | 2.6 | 0.00 | 0.00 | 0.00 | 69 | 814.2 |
| 20260506082458 | 51 | 271 | 1.7 | 3.5 | 0.00 | 0.00 | 0.00 | 70 | 814.2 |
| 20260506082348 | 51 | 340 | 0.9 | 1.7 | 0.00 | 0.00 | 0.00 | 71 | 814.2 |
| 20260506082238 | 51 | 330 | 0.9 | 2.6 | 0.00 | 0.00 | 0.00 | 70 | 814.2 |
| 20260506082018 | 50 | 293 | 2.6 | 4.3 | 0.00 | 0.00 | 0.00 | 70 | 814.2 |
| 20260506081908 | 50 | 316 | 2.6 | 5.2 | 0.00 | 0.00 | 0.00 | 70 | 814.2 |
| 20260506081759 | 51 | 205 | 4.3 | 8.7 | 0.00 | 0.00 | 0.00 | 71 | 814.2 |
| 20260506081648 | 51 | 118 | 7.0 | 12.2 | 0.00 | 0.00 | 0.00 | 66 | 814.2 |
| 20260506081538 | 51 | 90 | 4.3 | 8.7 | 0.00 | 0.00 | 0.00 | 62 | 814.2 |
| 20260506081428 | 52 | 60 | 3.5 | 5.2 | 0.00 | 0.00 | 0.00 | 64 | 814.2 |
| 20260506081318 | 52 | 167 | 3.5 | 7.0 | 0.00 | 0.00 | 0.00 | 66 | 814.2 |
| 20260506081208 | 52 | 148 | 1.7 | 4.3 | 0.00 | 0.00 | 0.00 | 60 | 814.2 |
| 20260506080948 | 52 | 100 | 0.9 | 3.5 | 0.00 | 0.00 | 0.00 | 64 | 814.2 |
| 20260506080838 | 51 | 129 | 3.5 | 6.1 | 0.00 | 0.00 | 0.00 | 66 | 814.2 |
| 20260506080729 | 51 | 117 | 5.2 | 7.0 | 0.00 | 0.00 | 0.00 | 64 | 814.2 |
| 20260506080618 | 50 | 120 | 5.2 | 8.7 | 0.00 | 0.00 | 0.00 | 69 | 814.1 |
| 20260506080508 | 50 | 94 | 6.1 | 11.3 | 0.00 | 0.00 | 0.00 | 66 | 814.1 |
| 20260506080358 | 50 | 106 | 2.6 | 5.2 | 0.00 | 0.00 | 0.00 | 66 | 814.2 |
| 20260506080248 | 50 | 147 | 3.5 | 4.3 | 0.00 | 0.00 | 0.00 | 70 | 814.2 |
| 20260506080138 | 50 | 222 | 4.3 | 6.1 | 0.00 | 0.00 | 0.00 | 70 | 814.2 |
| 20260506073448 | 50 | 0 | 5.2 | 7.0 | 0.00 | 0.00 | 0.00 | 61 | 814.2 |
| 20260506073338 | 51 | 0 | 3.5 | 4.3 | 0.00 | 0.00 | 0.00 | 61 | 814.2 |
| 20260506073228 | 52 | 332 | 4.3 | 7.0 | 0.00 | 0.00 | 0.00 | 58 | 814.2 |
| 20260506073118 | 52 | 350 | 2.6 | 6.1 | 0.00 | 0.00 | 0.00 | 58 | 813.9 |
| 20260506072858 | 52 | 99 | 5.2 | 9.6 | 0.00 | 0.00 | 0.00 | 57 | 814.1 |
| 20260506072638 | 52 | 101 | 6.1 | 9.6 | 0.00 | 0.00 | 0.00 | 58 | 814.1 |
| 20260506072528 | 53 | 70 | 7.8 | 11.3 | 0.00 | 0.00 | 0.00 | 55 | 813.9 |
| 20260506072418 | 53 | 95 | 3.5 | 7.0 | 0.00 | 0.00 | 0.00 | 57 | 814.1 |
| 20260506072308 | 52 | 173 | 1.7 | 5.2 | 0.00 | 0.00 | 0.00 | 58 | 814.1 |
| 20260506072158 | 52 | 0 | 1.7 | 3.5 | 0.00 | 0.00 | 0.00 | 61 | 813.9 |
| 20260506071938 | 51 | 46 | 3.5 | 7.0 | 0.00 | 0.00 | 0.00 | 60 | 814.1 |
| 20260506071828 | 51 | 296 | 2.6 | 4.3 | 0.00 | 0.00 | 0.00 | 56 | 814.1 |
| 20260506071718 | 51 | 309 | 1.7 | 3.5 | 0.00 | 0.00 | 0.00 | 57 | 813.9 |
| 20260506071608 | 51 | 45 | 0.9 | 2.6 | 0.00 | 0.00 | 0.00 | 56 | 813.9 |
| 20260506071348 | 51 | 3 | 4.3 | 7.8 | 0.00 | 0.00 | 0.00 | 55 | 813.9 |
| 20260506071238 | 52 | 347 | 4.3 | 7.0 | 0.00 | 0.00 | 0.00 | 59 | 813.9 |
| 20260506071128 | 52 | 309 | 2.6 | 4.3 | 0.00 | 0.00 | 0.00 | 58 | 813.9 |
| 20260506071018 | 52 | 205 | 1.7 | 4.3 | 0.00 | 0.00 | 0.00 | 55 | 813.9 |
| 20260506070758 | 52 | 138 | 3.5 | 9.6 | 0.00 | 0.00 | 0.00 | 58 | 813.9 |
| 20260506070648 | 52 | 284 | 1.7 | 5.2 | 0.00 | 0.00 | 0.00 | 57 | 813.9 |
| 20260506070538 | 51 | 28 | 2.6 | 7.8 | 0.00 | 0.00 | 0.00 | 57 | 813.9 |
| 20260506070428 | 51 | 356 | 4.3 | 7.0 | 0.00 | 0.00 | 0.00 | 56 | 813.8 |
| 20260506070208 | 51 | 22 | 1.7 | 3.5 | 0.00 | 0.00 | 0.00 | 55 | 813.8 |
| 20260506062338 | 50 | 31 | 3.5 | 5.2 | 0.00 | 0.00 | 0.00 | 56 | 813.8 |
| 20260506062228 | 50 | 69 | 2.6 | 5.2 | 0.00 | 0.00 | 0.00 | 55 | 813.8 |
| 20260506062118 | 50 | 33 | 4.3 | 9.6 | 0.00 | 0.00 | 0.00 | 54 | 813.8 |
| 20260506062008 | 51 | 67 | 6.1 | 8.7 | 0.00 | 0.00 | 0.00 | 55 | 813.8 |
| 20260506061859 | 50 | 65 | 5.2 | 7.0 | 0.00 | 0.00 | 0.00 | 57 | 813.8 |
| 20260506061748 | 50 | 104 | 3.5 | 7.0 | 0.00 | 0.00 | 0.00 | 57 | 813.8 |
| 20260506061638 | 50 | 64 | 1.7 | 3.5 | 0.00 | 0.00 | 0.00 | 57 | 813.8 |
| 20260506061528 | 50 | 79 | 2.6 | 4.3 | 0.00 | 0.00 | 0.00 | 56 | 813.8 |
| 20260506061418 | 50 | 67 | 3.5 | 6.1 | 0.00 | 0.00 | 0.00 | 56 | 813.8 |
| 20260506061308 | 49 | 80 | 3.5 | 6.1 | 0.00 | 0.00 | 0.00 | 57 | 813.8 |
| 20260506061158 | 49 | 75 | 2.6 | 5.2 | 0.00 | 0.00 | 0.00 | 58 | 813.8 |
| 20260506061048 | 49 | 60 | 3.5 | 6.1 | 0.00 | 0.00 | 0.00 | 59 | 813.8 |
| 20260506060938 | 49 | 73 | 5.2 | 7.8 | 0.00 | 0.00 | 0.00 | 57 | 813.8 |
| 20260506060828 | 49 | 35 | 7.0 | 9.6 | 0.00 | 0.00 | 0.00 | 58 | 813.8 |
| 20260506060718 | 49 | 23 | 6.1 | 10.4 | 0.00 | 0.00 | 0.00 | 55 | 813.8 |
| 20260506060458 | 49 | 38 | 7.0 | 13.0 | 0.00 | 0.00 | 0.00 | 56 | 813.7 |
| 20260506060348 | 49 | 80 | 6.1 | 9.6 | 0.00 | 0.00 | 0.00 | 57 | 813.8 |
| 20260506060238 | 49 | 49 | 4.3 | 7.8 | 0.00 | 0.00 | 0.00 | 58 | 813.7 |
| 20260506060128 | 49 | 16 | 7.0 | 10.4 | 0.00 | 0.00 | 0.00 | 57 | 813.7 |